GFSWCAN_925_spd_000.txt.gz
Wind_Speed
31 31 30 30 29 28 27 26 25 24 25 25 26 29 27 27 24 21 11 10 3 2 1 3 4 4 2 2 2 1 2 1 3 3 2 3 4 5 2 3 4 5 4 3 3 1 5 1 2 1 3 2 3 5
30 32 31 31 29 26 26 25 23 24 25 26 27 29 29 28 25 21 4 9 8 2 1 2 4 6 5 5 3 3 2 3 4 3 3 3 2 2 3 3 2 3 5 5 7 5 2 1 0 2 1 4 4 7
32 33 32 30 28 26 24 23 23 23 23 24 25 28 27 26 25 19 12 8 4 1 1 1 5 9 12 10 11 2 2 2 3 2 3 2 3 3 4 4 2 3 2 2 2 1 1 1 2 3 3 4 7 12
32 33 31 30 27 25 23 23 23 21 22 23 24 25 26 26 26 21 11 10 4 2 2 2 1 1 4 11 11 9 2 3 2 2 1 2 3 3 3 2 3 4 6 4 3 1 2 2 1 5 8 11 12 9
32 32 31 28 25 25 23 22 22 21 21 22 24 25 25 24 26 24 17 15 14 1 1 1 1 2 3 10 8 7 4 3 2 1 2 3 2 3 1 1 3 5 6 5 5 7 5 4 7 8 12 11 12 16
30 29 28 26 23 22 22 21 20 21 22 22 23 24 23 23 24 14 2 12 22 2 2 1 2 2 3 6 5 4 3 2 2 2 3 2 1 2 2 2 5 6 5 5 3 5 3 7 7 3 11 11 10 12
28 27 25 23 21 19 20 20 19 21 24 25 26 28 26 26 19 6 3 4 19 13 1 1 1 1 5 3 2 2 2 2 1 2 2 2 1 2 2 3 4 4 5 5 9 11 7 2 5 9 15 13 16 15
25 23 22 20 20 22 21 20 21 23 25 28 32 32 27 20 13 10 15 9 22 3 1 2 1 1 5 2 2 1 2 1 1 2 1 1 1 2 3 7 2 4 7 6 4 4 8 14 14 12 13 15 15 12
21 21 21 20 20 20 20 22 23 25 28 34 34 20 4 7 3 5 6 17 17 2 2 2 4 3 2 0 1 0 1 2 0 1 1 1 2 4 7 6 7 7 6 9 8 11 13 16 15 14 15 13 16 10
20 20 21 20 20 20 22 22 24 27 31 26 9 3 3 1 8 21 9 3 1 2 1 2 3 2 2 1 0 1 1 1 1 1 2 2 3 6 6 6 7 9 13 15 16 6 9 10 13 12 11 10 13 12
19 20 20 21 23 22 21 20 25 27 16 9 4 3 14 16 6 3 3 4 3 3 4 3 3 4 2 2 2 0 1 1 1 2 1 2 4 5 6 7 7 10 12 5 7 8 7 17 18 15 11 10 10 14
19 20 21 22 24 25 18 22 23 20 13 13 14 11 7 4 2 4 3 1 4 6 4 5 4 4 2 2 3 0 2 1 2 1 0 3 4 2 1 4 7 11 9 8 10 13 14 14 13 14 13 11 13 17
19 21 21 23 25 20 21 25 25 23 21 7 1 3 3 2 3 6 6 4 4 3 4 4 4 3 2 2 3 2 2 2 1 0 4 5 2 1 2 5 8 8 11 11 12 11 17 13 19 21 12 16 20 19
21 23 23 25 16 21 27 29 26 17 3 1 3 4 4 4 4 3 1 4 3 4 5 5 3 3 2 3 3 4 1 2 1 3 6 3 4 5 5 5 11 10 11 13 14 15 16 15 12 18 19 22 22 18
22 25 28 15 19 28 29 29 19 3 3 3 3 4 4 2 1 1 2 0 1 5 8 4 3 2 2 3 2 3 2 3 5 5 3 3 3 5 6 7 10 12 12 13 14 14 15 18 17 16 22 24 25 24
20 21 6 21 30 29 29 17 3 3 1 2 3 3 3 2 2 1 0 0 2 6 3 3 3 3 2 5 4 6 7 6 4 3 3 3 6 5 7 7 8 10 13 14 12 17 20 19 18 19 24 24 23 24
18 5 22 30 29 29 13 4 2 2 3 3 1 2 3 3 3 1 2 3 2 5 4 3 5 6 3 3 2 4 6 3 3 2 1 2 5 7 8 10 10 13 14 13 19 21 21 23 26 23 12 17 22 23
9 24 28 25 25 19 3 3 2 2 3 2 2 3 4 2 3 2 2 2 2 2 2 4 5 3 5 7 4 4 3 1 1 1 2 4 6 6 8 11 10 14 14 18 21 22 23 21 15 12 20 25 26 24
20 25 20 17 13 6 3 3 2 2 3 2 3 3 3 3 3 4 3 2 1 1 3 2 3 4 4 4 3 2 2 3 3 2 3 4 7 9 9 14 18 17 19 21 21 16 16 17 20 21 21 20 18 17
17 16 11 15 5 2 3 3 2 2 2 3 3 3 4 3 2 3 3 1 2 2 2 3 4 3 2 1 2 3 3 4 6 5 3 3 4 11 10 12 10 20 21 22 20 22 20 18 17 18 20 20 20 16
10 5 14 8 1 1 1 2 4 2 4 3 3 3 3 2 2 2 1 1 0 2 1 1 1 0 0 2 2 2 5 5 4 3 5 5 3 9 11 17 21 20 16 14 8 15 16 15 18 20 20 19 21 22
4 13 5 4 3 5 0 2 2 3 2 3 3 2 3 2 2 2 3 0 1 2 2 2 0 1 1 0 1 3 7 12 12 12 14 17 7 7 8 12 15 9 12 13 17 16 17 19 23 24 24 22 23 22
9 3 1 5 4 3 5 4 3 3 1 4 3 3 2 2 2 3 1 2 2 1 2 1 2 3 3 2 10 9 10 12 8 8 7 9 15 15 14 14 16 16 9 13 20 22 21 23 22 25 23 22 21 19
2 3 2 1 2 3 3 3 2 3 4 3 3 4 3 2 3 1 1 2 3 3 3 2 1 3 4 4 3 4 5 14 12 13 15 15 9 9 17 18 18 18 18 24 23 22 22 22 23 21 21 21 19 17
2 4 4 3 3 4 5 6 5 3 2 3 2 4 2 2 1 1 2 2 4 5 6 5 2 2 2 4 4 5 10 15 9 10 13 19 22 20 18 20 19 18 24 26 21 22 21 23 25 26 24 23 21 18
1 4 3 4 3 2 3 1 1 3 2 3 3 3 2 2 1 2 2 3 3 3 5 5 5 1 3 3 6 6 8 16 22 10 14 17 19 17 10 11 9 8 17 25 29 25 23 25 26 25 21 17 16 17
3 4 2 1 1 2 1 2 2 1 2 2 3 4 3 3 2 1 2 2 2 4 13 15 3 3 3 5 11 14 19 19 18 20 24 25 23 20 20 17 11 18 26 29 30 33 31 27 25 24 22 17 13 10
4 3 4 2 1 1 3 0 1 2 3 2 3 2 3 2 2 3 2 6 13 15 10 7 13 17 14 13 15 21 25 31 35 35 34 30 24 21 22 25 28 28 29 29 29 28 28 27 26 23 20 17 13 9
3 2 3 1 1 0 4 4 4 2 1 2 1 2 2 1 1 2 6 15 16 6 4 5 11 18 20 22 21 18 17 19 18 19 18 9 6 13 20 24 26 28 27 26 24 23 23 22 21 20 17 14 11 8
4 2 3 2 4 4 3 3 3 1 2 2 1 0 1 1 3 7 10 9 6 4 5 7 10 11 9 12 11 17 17 13 12 14 10 10 10 21 25 28 29 29 29 29 28 25 21 21 19 17 14 11 8 6
3 3 3 1 3 2 3 1 2 1 2 1 2 2 1 1 1 5 9 10 7 6 7 8 12 13 12 10 8 6 6 11 14 18 29 35 31 29 29 29 29 29 29 29 27 24 21 18 16 14 12 10 7 5
2 3 4 2 2 2 2 2 1 1 3 2 2 1 1 1 1 2 11 10 7 7 8 10 11 9 13 13 10 10 15 20 25 34 36 35 32 30 29 27 26 26 25 23 21 19 17 15 14 11 10 8 5 4
3 2 3 2 2 1 1 3 3 2 3 2 2 1 2 2 0 1 3 7 7 6 11 14 13 13 11 15 19 20 22 27 29 28 29 29 29 29 28 25 23 22 22 21 18 16 14 13 11 9 7 5 3 3

GFSWCAN_925_spd_003.txt.gz
Wind_Speed
28 29 30 31 29 27 26 24 23 24 22 22 24 25 26 26 26 24 16 8 2 1 1 3 3 4 3 3 3 3 2 3 4 5 3 3 4 5 1 2 3 5 3 3 2 1 3 1 2 6 3 2 4 6
28 29 31 30 28 26 24 23 22 22 23 22 23 24 25 25 25 23 6 14 4 1 1 2 4 5 7 6 4 3 2 1 3 3 3 2 2 3 4 3 1 3 5 4 6 4 3 3 2 2 1 4 2 6
28 29 29 29 28 24 22 22 21 21 22 21 22 23 24 24 23 20 13 14 1 1 2 1 5 7 11 10 10 3 2 2 3 2 2 2 4 3 4 4 3 3 2 1 2 2 2 2 2 3 5 4 7 10
27 28 27 27 27 23 21 21 20 20 20 20 21 22 22 23 22 20 12 17 10 1 1 2 0 3 3 10 13 7 0 2 2 2 2 3 3 2 3 2 3 4 3 4 3 3 3 4 0 6 7 10 12 9
26 25 26 25 24 22 20 20 20 19 18 20 21 21 22 23 23 26 18 16 14 2 1 1 1 2 2 9 8 6 6 3 2 3 3 3 2 2 1 1 3 5 6 4 5 5 3 3 6 7 10 9 11 16
24 23 22 22 22 21 22 22 20 18 20 22 22 23 23 23 22 14 2 9 13 5 2 2 1 2 3 6 5 4 3 3 2 3 2 2 0 2 2 3 5 5 4 3 2 4 4 6 7 4 9 9 9 11
22 20 20 20 21 22 22 22 22 22 23 24 25 26 28 25 17 5 5 1 8 6 1 2 2 1 4 3 2 2 3 2 2 2 1 1 2 2 1 3 5 2 4 3 5 8 6 2 5 8 13 12 14 13
21 18 18 19 20 20 22 24 25 25 27 28 30 33 28 20 12 9 22 22 14 3 1 1 2 1 5 2 2 2 1 1 1 2 1 0 0 1 4 7 3 3 6 5 5 3 6 12 12 11 11 14 14 11
20 18 18 19 18 20 23 25 25 27 30 34 31 22 1 5 3 5 7 6 17 3 2 2 3 2 2 1 1 0 1 2 1 1 1 1 1 4 7 6 6 7 6 8 7 9 10 14 14 13 13 11 15 10
20 20 20 20 20 20 23 24 23 28 32 24 11 5 2 4 16 8 7 3 2 1 2 2 1 2 1 1 0 0 1 1 1 0 1 2 3 6 6 6 4 8 12 13 14 5 8 8 12 11 10 10 12 11
20 19 20 22 22 22 23 20 24 29 20 8 3 2 11 20 5 3 1 2 3 2 3 3 3 4 2 2 2 0 1 0 1 2 1 2 4 5 2 8 6 9 13 6 5 7 7 15 17 15 11 9 10 13
20 20 20 22 24 24 20 20 25 23 16 13 16 16 5 3 2 2 3 1 4 6 4 4 4 4 2 0 2 1 1 0 3 1 1 3 4 1 2 4 7 11 9 7 6 13 13 14 13 13 12 11 12 18
20 21 22 22 24 23 19 26 26 25 23 3 1 1 1 2 3 6 7 4 4 3 3 3 2 3 2 1 2 2 2 3 1 0 4 4 3 4 1 4 7 7 9 10 10 11 14 12 18 18 12 16 21 21
19 20 21 22 17 20 26 26 26 15 3 0 1 4 2 2 3 2 2 2 2 4 7 4 3 3 2 3 2 3 1 1 1 2 5 3 4 2 3 4 9 10 9 12 13 14 15 15 13 18 20 23 24 19
18 21 21 9 21 27 27 25 15 3 2 2 2 3 3 2 2 3 2 2 2 2 5 4 3 3 2 3 2 3 1 4 5 4 3 3 3 3 5 4 7 8 9 10 12 14 14 16 15 16 21 26 26 25
18 18 2 19 27 27 27 12 4 2 0 1 3 2 3 4 2 2 1 2 2 1 1 3 3 3 3 4 3 7 7 6 4 3 3 1 3 3 5 6 6 7 10 11 11 14 17 18 17 19 23 24 24 25
15 5 16 25 24 25 11 5 3 1 2 2 1 1 1 5 3 2 2 2 1 0 3 3 5 7 3 3 2 4 5 3 2 2 2 2 4 6 6 7 7 10 11 12 15 18 20 24 26 23 14 16 23 23
6 18 23 20 19 13 5 5 2 2 3 2 2 2 3 4 4 3 3 2 0 2 2 3 4 2 5 6 4 4 3 1 1 1 1 2 5 6 6 9 8 11 11 16 19 21 24 22 15 12 21 26 27 24
15 18 17 14 10 3 2 2 2 2 4 3 4 3 2 4 6 5 3 6 3 1 2 1 2 4 4 4 4 2 2 2 3 1 2 3 5 8 7 11 14 15 17 20 21 16 16 18 20 21 22 21 18 18
14 13 8 12 3 1 2 2 2 2 3 3 4 4 3 4 4 4 3 3 2 2 3 3 4 2 3 2 2 1 2 4 4 3 3 3 3 8 9 11 9 18 19 21 21 23 23 20 19 20 22 22 22 17
8 2 9 5 1 1 1 1 2 2 3 3 3 3 4 2 3 2 2 1 2 3 2 0 1 1 2 3 2 2 3 4 3 3 4 4 3 8 9 14 20 19 13 13 10 15 16 15 19 21 21 20 22 23
3 7 2 2 2 3 0 1 2 2 2 3 3 2 4 3 3 2 3 2 2 2 2 2 2 2 3 3 3 1 4 6 6 7 10 16 7 6 8 11 12 8 10 14 17 16 18 20 24 24 25 22 23 23
6 1 1 3 3 3 4 3 3 3 1 4 3 4 3 3 2 3 1 1 1 2 3 2 3 3 3 3 3 7 7 7 4 4 6 6 12 15 13 14 17 15 9 14 21 24 23 24 23 27 25 24 24 20
1 3 1 0 2 3 2 3 2 3 3 3 2 5 4 2 3 1 2 1 2 4 6 9 3 2 1 3 2 2 3 9 8 8 12 12 8 8 14 16 17 17 20 26 25 25 23 23 25 23 23 22 19 18
2 4 3 3 3 3 4 5 5 3 2 2 2 4 3 2 2 2 1 3 4 5 6 7 6 4 1 1 1 1 5 8 6 7 6 14 19 19 17 18 21 20 25 29 24 24 22 25 24 25 24 24 24 21
1 4 4 4 2 3 4 1 2 4 1 2 4 3 3 2 2 4 1 2 3 3 5 6 6 6 2 2 0 1 1 12 15 6 9 14 15 14 11 12 11 11 16 23 30 27 23 23 25 25 23 19 19 21
3 4 2 1 2 3 1 2 2 2 1 3 3 3 3 3 4 2 1 0 2 4 15 16 12 6 2 1 5 5 9 12 12 13 20 20 20 17 21 16 10 19 28 30 32 32 30 27 26 26 24 20 18 16
4 4 5 3 2 1 4 1 3 5 3 2 1 2 3 3 3 1 2 4 14 17 17 13 8 2 4 9 12 16 18 24 29 31 31 28 24 24 25 28 30 28 31 30 30 30 31 31 29 27 25 22 17 13
3 3 4 2 2 1 4 6 4 2 2 3 3 3 3 2 2 1 6 15 19 14 7 4 3 9 14 16 15 14 16 18 14 18 17 9 7 15 25 30 29 29 28 26 24 27 27 27 26 24 22 20 16 13
4 3 3 2 5 5 3 3 3 1 2 2 1 1 2 2 3 6 10 12 8 6 6 4 3 3 4 7 8 13 14 12 10 13 11 10 10 23 28 30 30 29 29 31 31 29 26 26 24 22 20 17 12 9
2 3 3 2 3 2 3 2 2 1 2 1 1 2 3 3 3 3 8 11 9 7 3 4 7 9 8 7 4 5 6 14 16 22 34 33 31 30 31 32 33 33 32 33 32 30 27 25 22 19 16 13 9 6
2 3 4 2 3 2 2 2 1 1 3 1 2 1 3 2 2 1 9 9 6 6 6 7 7 7 10 11 13 16 21 26 30 33 35 34 33 32 32 33 32 31 31 29 28 26 23 21 18 15 13 10 7 5
3 3 2 2 2 1 1 3 3 3 1 1 2 2 2 1 3 1 3 5 5 6 9 10 10 11 13 17 20 21 24 28 28 30 31 32 32 31 30 29 29 29 28 27 24 20 18 16 15 13 11 8 6 5

GFSWCAN_925_spd_006.txt.gz
Wind_Speed
24 26 28 29 28 28 23 23 23 21 21 22 23 24 24 26 28 24 12 11 4 2 0 1 5 5 3 3 3 3 0 3 3 4 4 3 3 4 2 4 4 6 4 3 0 2 3 3 4 3 3 4 3 4
23 26 28 28 27 26 25 21 22 21 20 21 21 22 23 23 25 23 8 20 11 1 2 1 2 3 4 6 4 4 1 1 3 3 2 2 3 2 3 3 1 3 5 3 6 4 3 3 4 4 3 3 0 6
22 25 26 26 25 23 23 21 22 21 20 20 20 21 22 22 23 22 15 16 6 2 2 2 4 5 9 7 6 3 2 3 3 1 2 2 3 4 4 5 2 3 4 2 3 2 3 2 0 3 4 2 2 8
23 23 24 24 23 21 20 21 22 22 19 20 21 22 21 22 23 23 14 14 6 2 1 3 0 2 2 8 10 4 4 2 1 1 3 2 2 2 3 2 3 4 2 2 4 6 6 3 2 4 5 7 11 10
22 21 22 22 22 21 21 21 21 22 22 22 23 23 22 22 23 27 25 14 11 2 1 0 1 1 0 5 7 5 2 2 2 2 3 3 2 2 1 1 3 4 6 4 4 4 2 1 5 6 6 7 8 15
21 21 20 21 21 22 21 21 22 23 24 24 25 26 24 22 20 18 3 5 2 3 1 1 2 3 2 4 4 4 3 3 2 1 3 2 2 3 3 3 5 5 2 2 3 3 3 5 6 3 7 6 8 9
20 20 19 20 20 22 22 22 24 25 26 26 28 28 27 23 17 5 4 1 10 6 1 2 2 1 5 3 2 2 3 2 2 2 3 2 2 2 1 3 5 5 6 3 3 6 4 3 5 6 10 11 12 12
20 20 20 20 20 21 23 23 25 27 28 30 33 30 25 18 12 10 16 14 12 5 2 1 2 1 6 2 2 3 2 2 2 1 2 1 1 2 4 8 3 3 6 6 1 2 1 9 9 9 10 13 13 11
19 21 20 20 20 21 23 24 26 25 32 37 31 15 1 4 3 5 8 6 16 3 2 2 3 3 2 1 1 1 1 2 0 2 2 1 2 4 8 7 6 8 6 9 6 7 8 11 11 10 11 10 14 11
21 20 20 19 20 21 23 24 23 26 32 28 10 5 0 3 19 10 3 4 2 2 2 2 2 3 3 2 0 0 1 1 2 0 2 2 4 9 8 7 3 8 10 13 10 5 7 7 11 11 8 8 11 11
20 19 20 20 21 22 23 22 22 28 20 8 3 2 10 17 4 2 1 2 2 2 3 3 4 4 2 2 2 1 1 0 1 3 1 2 4 4 4 7 6 8 11 6 3 5 7 12 14 12 10 9 11 12
19 19 19 20 21 22 20 20 24 23 14 9 14 14 5 3 1 2 3 1 3 4 1 3 3 3 2 1 2 0 2 0 3 3 1 3 4 4 5 2 4 7 9 6 4 10 11 13 13 13 12 12 12 19
19 20 18 19 20 17 22 23 23 21 13 2 2 2 1 2 2 1 2 1 1 0 3 2 1 3 2 1 2 2 1 3 1 1 3 4 3 4 3 1 4 6 7 7 8 8 11 12 17 18 13 18 22 21
18 19 19 19 15 20 23 23 22 9 2 2 3 4 0 3 2 2 1 2 2 3 1 1 2 2 2 3 1 3 1 1 2 2 5 3 3 3 0 1 5 6 7 8 9 11 13 13 12 17 20 22 24 20
17 20 19 8 18 24 24 21 7 3 2 1 1 2 2 3 3 3 2 1 2 2 1 2 2 2 1 3 2 2 1 4 5 4 3 3 3 2 2 3 6 7 7 7 8 10 12 14 14 16 19 23 25 24
15 17 0 14 23 23 21 7 3 3 1 1 1 3 3 2 4 3 3 3 2 2 2 1 3 2 3 4 3 7 6 6 4 3 3 3 1 2 3 5 6 7 8 9 9 12 15 15 15 19 22 22 23 25
12 6 10 22 22 21 7 4 3 2 2 2 0 1 1 3 3 3 3 2 3 2 2 1 4 6 2 2 2 4 6 3 3 3 2 2 2 3 5 6 7 9 10 11 14 17 18 22 25 23 14 16 23 24
9 15 18 19 18 13 2 3 1 2 2 2 2 3 3 2 4 5 4 2 3 2 1 2 2 2 5 6 4 4 3 1 1 1 2 2 1 3 4 7 7 10 10 14 18 20 23 22 14 11 21 25 26 25
11 14 16 14 10 4 2 3 2 0 2 3 4 3 3 3 4 4 6 6 3 3 4 2 4 4 4 4 4 2 2 2 3 2 1 2 4 6 6 10 11 12 14 17 20 15 16 17 20 22 22 21 19 19
11 12 10 8 3 1 4 2 2 1 2 3 3 4 5 4 3 3 5 5 2 2 3 3 3 2 2 2 3 2 2 3 3 3 2 1 2 7 6 8 7 15 15 18 19 22 22 20 18 19 22 23 23 18
7 2 4 2 2 2 1 1 2 2 2 2 3 3 4 3 2 2 2 1 3 3 2 1 2 3 5 4 3 1 1 3 4 3 4 3 3 7 8 14 16 14 11 11 9 14 17 17 20 22 22 20 22 24
3 3 1 1 2 2 0 1 1 2 1 2 3 2 4 3 3 2 3 2 2 2 2 3 5 5 7 6 5 4 4 5 2 4 6 14 6 6 6 11 12 6 7 11 15 14 18 21 24 25 26 24 25 25
3 1 2 3 3 3 4 2 2 2 1 3 3 2 3 3 3 2 1 1 1 4 5 4 9 12 7 10 9 4 2 5 3 3 4 4 9 13 13 13 16 13 8 12 19 21 22 25 24 26 26 25 25 22
1 3 2 1 2 3 2 2 1 2 2 3 3 5 4 3 3 2 2 0 2 3 5 8 7 8 5 3 2 2 3 4 5 7 10 9 6 5 12 13 15 16 18 23 24 24 23 23 26 24 24 24 21 20
3 3 3 4 2 2 1 3 4 3 2 1 1 4 3 2 2 2 3 3 2 1 3 5 6 5 5 6 3 3 5 4 3 5 6 14 15 14 13 14 15 20 26 28 23 23 23 23 24 24 25 24 24 24
1 4 5 5 2 4 4 3 4 5 2 1 5 3 3 1 1 5 3 2 1 1 2 5 6 7 7 6 6 3 3 2 11 4 6 14 15 12 9 10 9 10 19 22 34 28 24 23 25 26 24 22 24 26
3 5 3 2 2 4 1 2 2 3 3 5 3 2 2 1 5 3 1 1 2 3 12 12 11 6 6 8 14 9 4 5 5 9 15 14 15 17 20 16 11 15 24 26 26 30 33 29 26 26 26 24 24 23
5 4 6 3 2 1 4 2 4 6 4 3 2 1 5 6 4 2 3 4 11 20 20 20 16 15 14 14 10 5 6 16 21 24 24 20 18 20 24 27 31 31 30 30 31 32 33 34 33 31 29 27 21 16
3 3 4 3 1 1 4 6 5 3 1 3 4 3 4 3 2 2 4 9 17 17 11 10 10 7 4 2 5 7 12 14 9 12 12 7 6 11 23 28 30 33 34 31 28 31 31 32 32 30 27 25 21 17
4 3 3 2 5 6 3 3 2 2 1 2 1 2 2 3 4 5 7 11 10 7 13 15 10 4 2 1 1 4 3 7 11 12 10 9 9 20 25 27 32 35 36 37 34 32 30 31 29 28 26 23 19 16
2 3 3 2 3 2 2 2 3 1 2 2 2 3 3 3 4 4 5 11 13 13 12 4 4 5 3 2 1 2 3 9 14 18 28 30 29 28 29 32 35 36 35 37 36 32 31 32 29 27 23 20 15 13
2 4 4 3 3 2 2 2 0 1 2 1 2 1 3 3 3 2 5 9 7 4 6 7 5 6 7 6 8 10 16 21 26 32 30 33 33 36 37 37 36 36 36 35 33 32 31 29 26 23 21 17 15 12
3 2 2 2 2 1 1 3 3 4 1 1 2 2 2 2 4 3 2 5 3 3 7 9 9 11 12 15 19 21 23 27 29 29 30 35 38 37 36 35 34 33 33 33 31 28 26 25 23 20 17 15 13 11

GFSWCAN_925_spd_009.txt.gz
Wind_Speed
18 20 22 22 22 23 23 23 22 22 22 22 21 22 23 23 25 28 17 11 8 2 2 1 5 5 3 4 3 2 1 1 2 2 3 3 4 4 2 3 4 6 5 4 2 2 5 1 2 1 3 4 3 3
17 19 22 21 20 20 21 22 22 22 23 22 20 21 22 23 23 23 11 27 25 5 2 2 2 1 6 7 4 3 1 2 2 3 2 2 3 2 3 3 1 3 5 2 6 5 3 4 5 4 3 3 3 1
17 19 20 20 19 18 19 21 22 21 22 22 22 22 22 22 22 20 15 19 12 2 3 1 3 4 6 5 7 3 2 2 2 1 2 2 4 3 3 4 2 3 3 3 1 2 5 5 3 1 3 2 1 3
17 20 19 20 19 18 19 20 22 21 22 23 24 23 23 23 22 22 17 18 8 4 2 3 1 2 3 8 8 4 5 4 2 2 2 3 2 2 3 2 3 4 3 2 5 6 5 3 2 1 4 6 9 9
18 20 19 19 19 19 19 20 21 22 23 24 24 24 23 22 21 25 29 20 13 3 1 1 1 0 1 4 6 6 6 3 2 2 3 3 1 2 1 0 3 5 6 4 4 3 3 3 3 3 5 5 7 12
17 20 19 19 20 20 21 21 22 23 24 25 25 25 24 23 19 16 3 10 9 3 3 1 2 2 2 3 5 4 3 2 2 2 2 3 2 4 3 3 5 4 3 2 2 1 3 4 4 2 5 5 8 8
18 19 19 20 20 20 22 23 24 25 26 27 28 30 29 23 14 5 4 6 23 22 2 1 2 1 4 3 2 2 4 2 2 2 3 2 2 3 2 4 5 5 5 5 4 6 3 3 3 5 9 10 14 13
17 19 19 20 20 20 22 24 25 27 28 29 34 34 26 15 10 8 11 10 8 4 2 1 2 0 5 2 2 3 2 2 4 2 1 2 2 2 4 8 5 1 3 3 5 1 3 8 8 8 9 12 14 12
17 19 19 19 19 20 22 24 25 26 27 35 34 18 1 3 3 2 9 15 11 4 1 2 3 3 2 1 1 1 1 2 2 2 2 2 2 4 7 6 6 8 7 7 5 5 7 7 10 10 10 10 15 12
17 20 19 18 19 20 22 24 25 25 29 26 10 5 1 2 16 3 4 4 3 3 2 2 3 2 3 1 0 1 1 1 2 1 2 2 4 9 8 7 5 6 8 11 6 4 5 5 10 11 9 8 11 11
18 20 19 19 19 19 21 20 24 25 15 8 4 2 10 13 2 0 3 3 2 1 2 2 3 3 1 2 2 1 1 1 2 3 2 2 3 3 4 6 5 7 9 8 1 4 5 11 13 12 11 9 11 13
17 19 18 19 19 19 19 21 23 21 14 8 12 9 5 3 2 1 2 1 3 4 1 2 4 4 2 1 2 1 2 1 3 3 1 3 4 3 5 5 0 6 8 5 2 6 9 12 12 12 11 12 12 18
15 17 17 17 20 18 19 22 21 17 8 2 1 3 1 1 1 4 4 2 1 2 1 0 0 1 1 1 2 2 1 3 1 1 3 4 3 4 3 3 3 5 8 7 6 7 11 10 16 17 13 18 22 20
14 17 16 16 15 16 22 22 16 4 2 2 2 4 2 3 2 2 2 3 2 2 3 0 1 2 1 3 1 2 1 1 2 3 5 3 3 5 4 2 4 5 7 8 8 10 12 13 12 17 20 23 24 21
12 16 17 11 10 18 20 15 5 2 2 2 1 1 2 2 2 2 3 3 2 2 2 0 1 2 0 3 1 2 0 4 5 5 3 3 4 4 3 1 4 6 7 7 7 9 11 14 13 15 19 23 24 25
10 14 2 5 17 18 17 4 3 2 2 1 1 2 2 2 3 3 2 3 2 4 1 2 1 1 3 4 3 7 5 6 4 3 3 2 3 1 1 0 3 4 6 8 9 12 15 15 15 18 22 22 22 25
5 4 4 15 17 18 5 1 2 2 1 1 0 1 1 3 3 2 3 2 4 3 1 1 4 4 2 1 2 5 5 3 3 2 1 2 2 2 3 4 5 6 7 7 12 15 17 22 25 23 14 16 24 24
7 9 11 14 16 9 1 1 2 1 2 1 1 2 2 3 3 4 2 1 3 3 2 1 2 2 5 5 4 3 3 2 2 2 2 2 2 2 4 6 5 8 8 10 14 18 21 21 14 10 22 26 27 26
8 8 10 11 8 3 2 2 2 2 3 2 2 3 3 5 4 4 3 3 3 2 2 2 4 3 3 2 3 3 3 2 2 2 2 2 2 5 6 9 10 10 12 13 16 13 15 16 19 23 23 23 20 20
7 7 9 4 2 0 3 2 1 1 1 2 2 2 3 5 4 3 4 3 2 2 3 4 3 1 2 3 2 4 6 4 2 2 2 1 1 5 4 7 7 14 14 18 17 18 18 18 18 20 21 24 24 20
3 3 1 2 2 2 2 2 1 1 1 2 2 3 3 2 3 3 3 1 2 3 2 3 3 4 5 5 8 5 7 4 4 3 3 2 2 6 7 11 15 13 10 10 8 13 14 13 19 23 23 21 23 25
3 2 2 2 3 2 1 2 1 1 1 2 1 1 2 3 3 2 3 2 2 1 3 3 4 5 7 7 8 12 13 15 11 7 2 7 4 4 5 9 10 6 8 12 16 14 17 20 21 24 26 25 26 26
3 2 2 3 3 2 3 2 2 1 1 2 2 2 2 2 3 2 2 2 2 2 1 2 6 11 8 14 13 11 9 8 5 4 3 3 6 10 11 12 15 11 7 10 19 22 22 24 23 26 27 26 27 24
4 3 3 1 2 3 1 2 2 2 2 2 1 4 3 3 3 2 3 3 2 1 0 3 4 6 6 5 4 4 8 8 8 7 5 6 3 4 12 12 15 16 17 20 22 24 26 25 26 25 26 26 23 22
3 2 3 3 2 3 2 2 3 2 2 1 1 3 3 2 2 2 3 3 2 2 1 2 2 3 5 6 5 6 14 8 4 3 6 8 9 10 9 13 15 20 27 25 22 23 24 26 25 24 25 25 25 23
3 4 5 5 2 4 5 3 4 5 3 2 5 3 2 2 1 6 3 3 2 2 2 2 4 6 6 6 7 6 10 16 14 3 5 11 13 10 8 9 9 11 21 25 30 28 25 25 27 27 25 25 26 30
4 5 3 2 2 4 2 2 2 3 3 5 3 1 3 1 5 4 2 2 2 5 6 14 13 7 7 10 15 17 17 18 13 9 8 13 13 16 19 14 11 19 26 28 27 33 35 29 28 26 26 25 28 29
4 4 6 4 2 0 4 2 4 6 4 3 4 3 6 7 5 3 4 5 7 10 16 18 18 19 19 20 19 18 16 9 6 9 10 8 10 16 18 21 28 32 33 35 32 29 30 33 34 34 33 31 27 23
4 3 4 3 1 2 5 6 5 3 2 4 5 4 4 3 2 2 3 4 9 13 11 10 15 15 17 18 18 17 14 12 5 6 6 3 2 5 20 27 30 31 33 33 29 35 39 40 38 37 34 32 27 23
4 2 4 3 6 6 3 3 2 2 1 2 1 2 2 3 5 6 8 10 9 9 13 15 18 14 9 8 6 9 10 15 15 5 5 6 5 17 23 27 31 33 36 38 37 34 33 35 34 35 33 30 26 23
3 3 3 2 4 2 2 2 3 0 3 2 2 3 3 3 6 5 7 8 13 13 12 10 10 7 9 8 5 4 3 6 15 17 15 21 22 23 26 29 33 35 37 41 40 38 36 36 36 33 30 27 22 20
2 3 4 3 2 2 3 2 1 1 3 2 2 1 3 3 3 3 2 7 6 6 8 10 8 7 7 5 3 6 5 11 17 23 27 27 26 30 33 35 36 38 41 41 41 39 39 37 32 30 28 25 21 18
3 2 2 3 2 2 1 3 3 4 2 2 3 2 3 3 5 3 2 3 3 6 9 8 5 4 5 7 9 12 15 19 20 23 28 29 33 37 39 39 41 42 41 38 37 38 36 35 32 29 26 24 21 18

GFSWCAN_925_spd_012.txt.gz
Wind_Speed
14 14 15 17 17 18 18 18 19 19 19 19 20 20 21 22 22 23 12 9 7 3 6 4 6 4 3 4 4 4 3 2 2 2 3 3 3 2 3 2 3 6 5 4 4 3 3 2 3 3 4 8 8 5
16 14 15 17 16 17 18 18 19 18 19 19 20 20 19 19 19 18 7 16 19 4 4 2 2 1 2 5 4 3 1 3 3 3 3 2 3 3 3 2 3 4 5 2 5 3 2 2 7 5 3 6 4 2
16 14 16 17 18 17 17 19 19 18 19 19 19 20 20 20 20 18 15 16 13 3 2 2 3 2 5 5 6 3 1 4 3 1 1 2 4 0 3 4 2 5 4 3 3 3 5 4 4 2 4 3 2 1
16 14 15 17 19 17 18 20 20 19 19 20 20 21 20 19 19 18 14 13 6 3 3 1 1 1 2 4 4 1 5 4 3 1 2 3 2 2 2 2 3 1 5 5 5 9 8 4 2 3 5 5 7 8
16 16 15 16 19 19 19 21 22 21 21 22 21 21 19 19 19 21 24 13 14 3 2 1 1 1 1 3 5 4 6 5 2 2 3 3 2 1 3 2 5 5 5 3 2 1 2 3 3 4 6 6 6 12
16 16 17 17 19 20 20 21 23 23 23 24 23 22 20 21 17 12 1 10 14 5 2 2 2 2 2 2 5 4 3 2 2 2 2 3 3 2 3 4 7 11 6 5 2 2 1 3 4 5 9 7 8 12
15 15 18 19 19 20 19 21 23 23 25 26 26 24 26 21 14 6 2 1 12 11 2 1 2 2 3 2 2 2 4 2 2 2 2 2 2 3 2 8 6 6 7 7 3 5 2 5 2 6 11 12 12 14
14 14 17 19 21 21 20 22 24 25 26 29 30 28 20 8 5 6 9 7 8 5 3 1 0 1 5 2 2 3 3 3 3 2 2 2 2 2 5 11 14 7 3 5 7 3 3 9 10 10 11 13 14 13
14 15 15 19 20 21 20 22 23 24 29 31 24 6 3 3 2 1 6 3 10 5 2 1 2 1 2 1 1 2 0 2 1 2 2 1 3 5 11 9 8 7 5 3 6 5 8 8 11 12 13 12 14 13
15 15 15 19 18 20 19 22 22 25 28 18 8 4 2 2 12 1 5 1 3 4 3 2 1 1 2 1 1 0 0 1 2 1 2 3 4 12 11 7 6 3 6 11 7 4 5 5 10 13 13 11 12 13
14 15 14 19 17 18 19 20 21 23 12 6 5 2 7 10 0 1 1 2 3 2 3 1 4 3 3 3 3 1 1 0 2 0 2 2 4 3 3 7 6 8 9 11 2 2 10 12 14 13 13 11 13 16
15 15 14 18 17 16 18 17 20 15 10 7 8 5 4 2 1 0 1 2 2 2 2 1 1 2 1 1 1 1 1 1 4 3 2 3 3 2 6 6 8 4 8 9 3 4 8 12 14 14 13 14 16 20
14 14 13 17 16 15 15 18 18 10 3 0 1 2 1 1 3 3 5 2 2 3 3 1 1 1 2 0 2 2 3 3 1 2 3 4 3 4 6 5 4 1 6 7 6 7 11 11 18 19 15 18 22 21
14 13 13 16 15 9 16 16 6 3 1 1 1 3 1 2 2 2 2 2 2 2 3 1 1 1 0 2 1 2 1 1 2 3 5 2 3 6 6 4 2 2 4 7 9 10 11 12 12 17 19 23 23 20
13 12 15 16 8 11 14 9 3 2 2 1 1 2 2 1 2 1 1 2 2 2 3 1 1 1 1 1 1 2 2 4 5 4 3 2 3 4 4 2 0 4 4 5 7 10 11 13 14 16 19 21 22 23
10 14 11 7 8 12 12 1 3 2 3 0 1 1 1 1 1 1 2 3 2 4 1 1 1 1 4 2 3 6 3 5 3 3 2 3 4 3 3 1 2 4 6 7 6 9 13 15 14 18 20 20 21 22
10 6 6 7 11 13 3 2 2 3 2 2 1 1 1 1 2 2 1 2 4 3 0 1 3 2 1 1 3 4 4 3 6 5 5 6 6 5 2 1 4 6 7 8 12 13 14 18 22 22 14 18 20 21
10 9 7 9 10 5 1 2 1 3 3 2 2 2 1 2 2 3 1 2 3 3 3 1 1 3 3 4 2 2 3 7 6 6 6 6 8 7 4 3 4 7 7 10 13 16 18 18 13 10 21 24 24 22
12 7 8 7 6 1 0 0 1 3 3 1 2 3 2 3 4 4 3 3 3 2 3 2 4 3 3 1 1 4 5 4 6 8 8 6 6 7 5 2 5 8 11 11 15 12 14 14 14 19 21 22 19 20
9 8 7 5 2 1 1 1 0 3 2 1 1 2 3 3 3 4 5 2 1 1 3 3 2 2 3 4 5 7 7 6 6 7 8 3 3 4 4 4 4 9 12 13 13 18 18 17 17 19 19 21 23 20
7 6 5 5 2 3 1 1 2 2 1 1 1 2 2 2 2 2 1 3 2 3 3 1 1 2 4 6 9 8 8 7 6 4 5 7 5 3 4 4 7 9 9 10 8 11 15 14 18 20 22 19 19 21
6 8 4 3 3 2 1 3 1 2 1 1 1 1 2 2 2 1 3 2 3 2 1 0 2 4 7 8 8 14 15 16 13 10 12 7 4 3 4 7 8 5 7 9 13 11 16 21 22 22 23 23 23 24
11 6 3 2 3 2 2 2 2 1 2 1 1 2 2 2 2 3 2 3 2 2 2 1 2 6 9 15 14 14 11 13 7 5 8 7 5 7 8 10 10 8 5 9 14 16 18 23 25 26 26 25 26 24
7 3 3 2 2 3 2 2 1 1 1 1 2 3 2 2 2 1 4 3 2 2 2 1 3 5 5 5 5 6 11 13 13 12 10 8 3 4 9 11 11 11 13 16 19 20 22 21 27 27 27 27 24 23
3 3 3 2 1 3 2 2 1 1 3 3 3 3 1 2 2 3 3 2 2 3 3 2 2 3 4 6 6 9 12 12 6 8 13 11 5 4 4 5 8 14 22 22 20 23 22 23 24 26 27 26 26 24
5 4 5 6 2 4 4 4 5 5 2 3 5 1 1 2 1 5 3 2 3 3 3 3 3 5 6 7 8 7 12 12 15 7 14 13 12 7 6 6 5 8 19 21 26 26 26 24 25 27 24 27 29 28
5 5 2 2 3 4 3 2 2 2 4 5 3 3 2 2 5 4 2 3 3 5 6 7 7 7 7 11 16 17 17 17 16 16 21 21 18 18 16 12 10 15 22 24 26 30 30 27 26 25 26 25 25 28
3 5 7 5 2 1 4 3 5 6 4 4 4 4 6 7 5 3 3 4 8 6 10 14 17 20 19 20 21 19 18 17 19 19 15 11 10 14 19 18 16 21 26 28 32 32 31 35 32 29 28 27 27 29
4 3 4 3 2 3 5 6 5 3 3 4 5 4 4 3 2 2 4 5 6 7 9 9 14 15 18 21 20 21 20 15 8 10 10 5 1 4 12 18 21 24 27 29 29 35 36 35 37 37 35 34 32 29
4 3 3 3 6 6 3 3 2 1 1 1 1 2 2 3 5 6 8 8 7 7 12 15 18 15 11 9 10 15 17 16 16 13 6 4 4 7 15 20 25 24 28 31 33 34 33 34 33 37 37 34 31 29
3 3 3 2 3 1 1 2 3 0 2 1 1 2 3 4 6 6 8 7 7 9 11 10 13 14 12 10 7 6 6 11 15 19 18 12 13 18 20 23 28 30 32 34 37 37 35 32 35 35 31 31 27 26
2 3 4 3 2 1 2 2 1 1 2 1 2 1 3 2 3 2 3 3 4 3 6 11 10 11 15 16 16 15 17 20 19 13 17 17 20 23 25 26 29 32 34 34 35 37 39 37 32 29 31 29 27 26
2 2 2 3 2 1 1 2 3 3 1 2 2 1 2 2 5 2 3 4 4 5 9 11 12 13 12 11 8 6 5 4 6 13 16 22 28 30 30 31 33 34 34 35 35 39 37 36 33 33 32 30 28 25

GFSWCAN_925_spd_015.txt.gz
Wind_Speed
16 17 16 16 19 16 16 16 17 16 17 17 18 20 19 18 20 18 11 11 6 3 8 6 10 6 5 7 4 4 3 2 3 3 1 2 3 1 3 4 4 8 6 4 4 4 6 2 4 4 6 7 8 7
16 16 17 17 19 17 16 16 17 16 16 16 18 20 20 19 16 15 6 14 10 4 5 8 9 6 6 5 2 4 2 2 2 2 3 2 2 3 6 3 3 4 6 2 5 3 5 5 9 9 6 8 7 5
16 16 17 17 18 17 16 18 18 17 17 16 16 19 20 20 16 14 12 11 5 3 4 3 7 6 4 2 2 3 2 2 3 2 1 1 5 2 3 5 5 5 4 4 5 2 6 8 4 1 6 6 4 1
17 17 17 18 18 16 18 18 18 18 18 17 17 19 20 19 18 16 15 11 4 3 3 1 1 2 1 4 3 1 5 6 3 2 2 2 2 2 3 4 6 4 3 4 9 14 10 3 5 3 3 3 5 7
18 18 18 18 19 18 18 18 18 19 19 18 19 20 21 18 18 20 21 17 15 4 2 1 2 1 1 3 4 3 6 4 2 2 3 3 3 3 7 5 10 8 8 6 5 5 5 5 4 3 3 5 6 9
18 18 18 18 19 20 18 19 19 20 20 20 21 23 21 18 16 13 2 5 6 14 2 2 2 3 2 3 5 4 3 2 2 2 2 2 3 2 3 6 8 11 14 13 9 3 2 2 3 3 4 6 8 10
17 19 18 18 20 20 18 19 21 21 22 23 24 26 25 21 16 7 2 1 7 2 2 2 2 2 2 3 2 1 3 2 2 1 3 2 3 2 3 9 7 5 6 7 5 3 3 4 1 5 7 9 12 12
15 18 19 19 20 21 18 19 21 22 24 26 30 25 16 9 5 9 14 13 8 3 2 2 2 3 4 3 3 3 2 3 3 2 2 3 2 2 5 11 13 14 15 8 6 5 1 7 8 9 10 10 12 12
17 17 18 19 19 20 18 20 21 22 25 28 21 4 3 2 3 2 2 4 6 4 3 1 3 2 3 1 1 2 2 3 3 2 3 1 3 5 10 7 6 6 5 4 5 4 6 8 10 10 11 11 12 12
18 17 18 17 18 18 18 19 20 23 24 15 7 3 1 2 9 2 4 2 3 3 3 2 1 2 4 3 3 1 1 2 2 1 2 3 4 14 15 14 9 5 1 8 5 2 2 3 8 11 11 11 11 12
19 17 17 17 16 18 16 18 18 21 9 5 4 2 7 8 0 2 2 2 3 2 3 2 2 1 1 2 1 1 1 0 2 0 2 2 4 1 4 6 5 6 9 11 8 3 11 10 13 12 11 10 11 13
19 17 16 15 15 16 15 15 17 11 4 5 8 5 4 2 2 2 1 1 3 1 1 1 2 0 2 1 1 0 1 1 3 3 2 3 3 4 7 9 10 8 7 8 7 5 7 8 11 12 11 12 14 16
18 18 16 15 16 14 13 15 15 6 4 2 2 2 2 2 2 2 2 1 1 3 3 3 1 1 2 1 1 1 2 2 0 2 3 4 4 5 7 7 8 6 2 3 2 3 6 7 14 15 13 18 20 19
18 18 17 15 15 13 10 13 7 3 0 1 2 1 1 1 1 1 0 1 2 1 3 2 1 0 1 1 0 1 0 1 2 3 4 3 7 10 9 7 6 4 4 3 4 6 8 10 9 14 17 22 22 19
18 17 16 15 15 8 11 11 2 1 2 1 2 1 1 1 0 1 1 1 0 1 2 1 1 0 0 1 1 1 2 4 4 2 3 7 10 10 10 9 9 4 2 4 4 6 7 10 10 12 16 18 19 22
15 13 14 11 7 8 12 3 2 2 1 1 2 2 2 2 1 0 1 1 1 4 1 1 1 1 3 2 3 5 2 4 1 3 6 8 11 11 11 10 8 6 2 3 4 7 10 10 11 14 17 18 19 21
9 6 3 5 6 9 6 2 1 2 1 2 2 2 2 1 1 2 3 2 4 3 1 1 3 2 1 2 3 3 3 1 4 5 5 7 9 11 10 8 6 5 3 2 5 8 10 15 18 17 12 16 19 19
10 5 6 6 6 6 1 1 1 3 4 3 3 3 3 1 1 2 1 3 3 2 2 1 2 3 3 4 2 2 3 5 5 5 7 8 9 9 7 8 5 5 3 1 4 8 12 15 11 9 19 21 22 22
12 11 9 6 3 1 1 1 1 2 3 1 1 1 2 2 1 2 3 3 3 3 3 2 4 3 1 3 3 4 5 4 6 8 9 8 7 7 8 8 6 3 2 1 6 7 10 11 11 18 20 21 18 19
15 14 11 7 4 2 1 1 1 1 1 1 1 2 2 1 2 1 2 2 2 1 3 3 3 1 1 1 1 4 5 6 7 8 8 5 8 8 4 4 5 1 2 3 4 8 10 11 12 16 18 20 21 19
17 10 10 6 2 2 1 2 2 1 0 1 1 1 2 1 1 0 1 1 2 3 3 3 2 2 1 4 5 7 6 6 7 6 8 8 9 11 10 4 2 4 4 5 4 7 10 9 14 15 19 18 20 21
6 13 5 4 1 1 1 1 0 2 2 2 2 1 1 2 1 1 1 2 3 3 2 1 1 1 3 3 5 9 12 13 13 13 15 15 8 6 5 6 4 3 5 5 7 8 9 13 15 17 19 20 21 24
12 8 3 3 2 3 1 1 3 2 3 3 2 2 2 2 2 1 2 3 3 1 3 2 2 1 4 9 8 11 9 10 7 8 12 12 13 14 10 10 10 7 4 7 9 10 13 17 18 18 21 22 24 23
8 3 3 3 3 3 3 2 1 2 1 2 2 2 2 2 1 2 3 3 2 3 4 4 2 3 4 6 5 6 9 9 11 13 12 11 7 8 10 10 11 12 12 13 12 13 17 19 22 22 21 22 23 23
5 5 4 4 1 3 4 4 3 3 3 2 3 2 2 1 1 3 3 2 3 4 5 5 4 4 4 6 6 8 6 9 8 8 13 13 14 14 11 8 10 11 15 18 15 17 17 20 21 22 24 22 23 23
5 5 7 7 4 5 5 5 5 5 3 3 4 1 1 2 2 5 3 3 3 4 6 6 6 5 6 6 7 6 9 8 11 9 16 15 13 10 7 6 5 7 15 18 22 21 21 21 23 25 23 25 27 26
5 6 3 2 2 4 3 2 2 2 4 5 4 5 3 3 5 3 1 3 3 5 8 9 8 7 6 9 13 15 14 13 14 17 20 21 21 20 19 13 7 10 17 20 22 26 26 25 26 27 24 23 24 26
2 5 7 6 3 0 3 3 5 6 4 3 5 5 6 6 4 2 2 3 6 6 7 10 12 14 14 16 16 15 16 16 18 19 20 22 23 22 20 20 20 18 18 24 23 25 27 29 29 30 29 26 23 23
4 4 5 4 2 3 5 6 5 3 3 4 4 4 4 3 1 1 3 5 6 6 6 8 8 9 13 16 17 19 18 14 9 11 12 8 6 8 10 13 17 17 20 22 24 28 31 33 33 33 32 30 30 30
5 5 3 4 5 6 2 1 1 1 1 1 2 2 2 3 4 7 8 8 6 7 8 8 10 9 8 9 10 13 14 15 17 14 8 8 7 7 10 11 14 20 23 24 24 28 28 31 32 31 32 30 31 29
5 3 3 3 3 1 2 2 2 0 1 1 1 2 3 4 6 7 9 9 8 6 6 7 8 8 9 10 9 7 9 11 12 16 19 19 17 14 11 13 18 23 26 26 28 31 32 28 30 31 29 29 28 30
3 3 3 4 2 1 0 0 1 1 0 1 1 0 2 2 4 2 3 5 2 4 5 6 7 10 15 18 19 19 19 22 23 21 20 18 16 14 14 19 23 26 29 31 32 35 36 32 30 30 31 31 29 27
3 2 2 3 2 2 1 1 0 1 1 2 2 1 1 2 5 2 3 6 6 5 6 8 11 14 14 14 14 14 12 14 12 11 9 10 13 16 22 24 27 31 32 29 29 34 35 35 33 32 31 31 29 27

GFSWCAN_925_spd_018.txt.gz
Wind_Speed
9 13 16 16 16 18 18 15 18 16 17 18 17 16 16 16 16 15 10 7 6 3 9 7 8 7 1 2 2 3 3 0 2 2 1 1 2 1 2 3 5 6 6 3 3 3 6 0 2 2 3 5 5 4
10 13 16 17 17 18 20 15 18 18 17 17 17 18 16 14 14 12 5 10 9 3 5 11 24 24 13 4 1 3 1 3 1 3 1 2 2 4 5 3 4 3 4 4 7 5 6 4 6 1 3 3 5 4
12 13 15 17 17 18 20 15 19 19 18 17 17 18 18 15 11 10 10 10 2 2 5 5 7 14 9 4 1 2 0 2 3 2 2 1 4 1 2 4 3 5 4 1 3 3 4 4 5 6 4 4 4 4
14 14 16 17 18 19 19 17 17 20 19 19 19 19 18 17 14 9 11 12 4 1 3 3 4 2 3 3 3 2 6 5 4 2 2 2 2 3 2 4 3 4 1 4 5 9 3 6 5 4 5 4 7 6
14 15 16 17 18 19 20 20 17 20 21 20 21 21 19 18 14 12 16 17 16 4 3 4 9 2 2 4 6 5 8 4 2 2 2 3 2 3 3 4 7 4 5 4 4 2 2 2 3 4 6 5 6 7
15 16 16 16 19 19 19 22 18 20 21 22 24 23 22 19 14 6 2 1 11 20 3 3 3 3 2 4 6 3 1 3 2 2 2 2 2 2 3 4 6 8 12 11 8 3 3 5 5 4 6 6 7 7
17 16 16 16 18 19 20 23 20 22 22 23 25 27 24 17 13 5 1 5 6 7 2 3 3 2 5 4 2 2 2 2 2 2 2 2 3 4 3 6 8 12 10 7 4 4 2 4 3 7 8 8 11 10
16 17 16 17 18 19 19 23 22 22 23 24 27 21 11 4 4 6 18 11 9 5 3 2 2 3 3 2 3 2 2 2 3 2 1 2 1 3 4 7 8 10 14 11 7 5 4 7 7 7 7 9 10 9
18 17 16 17 18 19 19 21 22 23 24 27 17 3 1 0 2 2 4 6 8 6 3 1 3 2 2 1 2 1 2 2 3 3 2 2 2 4 6 9 7 6 4 3 6 5 6 6 7 8 8 8 11 10
16 15 16 16 18 20 18 19 21 23 26 11 6 2 0 3 9 3 4 2 3 3 3 2 1 2 2 2 2 3 2 1 0 1 2 2 3 10 10 8 6 7 5 6 3 3 0 1 6 8 7 7 8 10
17 16 15 16 18 18 18 18 19 22 9 5 3 1 5 8 1 2 2 2 2 2 3 2 3 3 1 1 2 2 2 0 1 1 1 2 2 3 7 7 7 8 8 7 7 5 7 7 9 8 7 8 9 13
17 18 15 15 16 15 17 16 17 13 6 5 8 6 3 2 1 2 2 1 3 1 2 1 2 2 1 1 1 0 2 1 2 0 1 2 1 6 10 10 9 8 8 8 4 3 6 7 7 8 7 9 12 17
17 17 16 15 15 13 15 17 14 11 9 2 2 2 1 2 2 3 3 1 1 3 3 3 0 1 1 0 2 1 2 3 1 1 2 3 4 9 10 10 11 8 7 6 5 3 3 6 11 11 10 15 19 19
18 17 16 14 14 13 10 13 15 5 3 1 2 3 2 2 1 1 2 2 2 2 2 2 1 1 1 2 0 1 1 1 1 2 4 2 6 10 9 9 9 9 7 6 6 6 5 7 8 15 16 20 21 18
17 17 16 15 11 12 9 11 7 1 2 2 2 3 3 1 1 1 1 1 1 2 2 1 1 0 1 1 1 1 1 3 4 3 2 4 7 8 9 10 10 9 7 5 3 3 5 8 8 10 18 20 20 21
16 14 14 8 8 8 7 6 2 2 2 2 3 2 1 1 1 1 0 0 1 2 1 1 1 2 3 2 3 5 2 4 2 1 2 5 8 8 9 9 8 7 6 5 4 2 4 6 8 11 16 18 20 22
14 6 6 5 5 4 5 2 2 3 2 2 3 3 1 2 0 1 1 1 1 1 1 1 3 2 1 2 3 4 3 2 3 3 2 5 7 10 8 6 6 7 6 5 3 2 4 11 16 14 9 14 20 22
9 9 9 9 5 3 1 3 2 2 4 3 2 3 3 1 2 2 1 3 1 0 0 1 1 2 3 3 2 2 2 1 2 1 3 6 6 5 8 7 9 9 8 6 3 7 9 10 6 5 16 20 22 22
17 15 10 8 5 2 1 2 1 2 3 2 2 2 0 2 2 2 1 1 2 1 0 2 2 3 1 2 2 1 0 2 4 5 5 7 4 5 8 12 13 7 5 2 1 3 7 8 10 14 16 18 15 17
18 13 10 11 7 3 1 1 1 2 2 2 2 2 2 0 2 2 2 1 1 1 1 3 3 3 2 2 1 1 2 3 4 6 5 3 10 12 8 8 8 11 7 1 1 4 10 12 14 18 16 14 17 18
16 8 17 13 2 2 0 1 2 1 1 2 1 2 2 1 1 1 3 2 2 3 3 3 2 2 3 2 2 3 3 2 2 2 7 8 10 13 13 12 8 8 6 4 3 5 7 7 13 17 17 17 17 17
7 19 5 3 2 2 1 1 1 1 1 1 0 0 1 1 2 2 0 3 3 3 3 2 3 3 2 2 2 4 7 9 9 11 11 12 7 7 7 12 7 3 9 10 10 8 10 12 15 18 18 19 21 22
16 8 4 2 2 2 2 1 3 2 3 2 1 0 2 1 1 1 2 3 3 2 2 2 3 4 4 4 4 6 7 9 3 7 9 10 13 13 13 14 13 10 4 11 13 12 15 18 17 18 21 21 22 23
10 3 4 4 3 2 3 3 2 2 0 2 2 2 2 2 2 2 3 3 3 2 2 3 3 2 2 2 2 2 4 6 9 12 11 12 3 10 13 16 16 17 16 15 14 16 18 19 20 19 20 21 22 22
5 3 4 4 1 3 4 4 3 3 3 3 2 2 2 1 1 3 3 3 2 2 2 2 2 2 3 2 2 6 7 6 7 6 11 10 15 14 13 15 17 18 14 12 13 16 17 18 20 21 20 21 22 23
5 6 9 8 4 5 5 5 6 6 3 3 4 1 1 2 1 6 3 3 3 4 5 7 7 4 5 7 3 2 7 7 9 8 16 16 16 11 7 7 7 11 12 16 15 15 16 18 20 23 22 23 25 25
6 6 4 2 2 3 2 1 2 2 4 5 3 4 3 2 5 4 2 2 3 4 9 14 16 8 3 3 9 14 16 16 17 19 21 21 22 23 22 16 11 18 16 16 19 19 20 21 21 24 25 25 25 25
3 4 7 5 2 1 4 3 5 6 5 3 5 4 7 7 5 3 3 3 5 5 7 9 10 11 12 16 18 18 20 20 19 20 23 25 26 25 26 27 28 25 24 24 20 23 24 24 24 26 27 27 26 26
3 4 4 4 2 3 5 7 4 3 2 4 5 4 4 3 2 2 3 5 7 7 5 7 10 12 13 15 18 19 19 18 7 8 11 8 4 13 16 19 17 19 21 22 19 23 28 28 27 28 29 28 29 30
4 4 3 4 6 6 3 2 1 1 1 1 1 2 2 3 4 7 9 10 8 8 9 9 8 9 10 11 11 16 18 19 21 16 8 8 7 13 11 13 15 16 17 20 19 21 23 25 26 28 30 30 29 28
4 2 3 2 3 1 1 2 2 0 1 1 1 2 3 3 7 6 10 11 10 8 6 5 8 10 13 13 11 7 9 12 13 18 21 22 23 22 22 20 19 15 18 20 23 23 23 26 26 26 28 28 28 29
2 3 4 4 1 1 1 1 0 0 1 1 2 1 3 2 3 3 4 7 8 4 5 6 8 9 11 14 16 19 20 24 25 23 21 21 21 22 21 17 14 16 19 21 24 31 32 27 26 27 31 30 30 32
2 2 2 3 2 2 1 2 2 2 1 1 2 1 2 2 6 3 3 8 8 5 7 6 7 8 9 11 14 16 16 17 17 16 16 17 18 15 13 13 17 22 26 28 27 29 29 30 29 31 34 34 32 31

GFSWCAN_925_spd_021.txt.gz
Wind_Speed
8 8 10 12 13 13 13 17 12 17 17 17 15 16 15 13 12 12 11 6 5 3 8 5 3 2 5 2 3 3 3 2 1 2 2 1 1 2 0 4 6 6 6 4 4 4 7 5 4 3 4 1 1 1
10 9 10 12 13 14 14 15 13 14 16 17 16 15 15 15 12 9 4 12 10 4 5 8 18 25 16 14 3 3 2 2 4 3 1 1 1 1 1 2 3 3 6 4 7 5 6 4 6 1 1 2 2 2
9 8 12 13 13 15 15 16 17 13 15 17 16 16 16 14 13 12 12 12 8 2 6 5 8 15 15 20 13 2 1 3 2 2 3 1 2 1 2 4 2 3 2 3 1 5 4 3 2 2 2 1 3 2
11 10 9 13 13 16 16 16 17 15 15 17 17 17 18 17 15 15 14 12 8 2 4 6 8 9 10 14 10 2 6 5 4 2 2 2 1 2 3 3 2 4 5 2 5 8 2 1 1 0 1 3 4 4
12 12 11 12 14 15 17 17 18 21 15 19 18 19 20 18 16 16 16 18 18 7 3 6 23 8 8 11 10 8 11 4 2 2 2 3 2 1 3 3 4 3 6 4 5 5 2 2 0 0 3 3 5 6
12 13 14 13 13 16 17 16 18 20 18 20 20 21 21 21 18 11 3 3 11 20 1 4 5 4 6 11 11 6 3 2 2 3 2 2 2 2 3 3 5 6 4 8 6 3 3 3 4 3 4 5 5 6
18 15 13 14 15 17 17 18 18 20 20 20 22 23 23 17 8 4 3 3 8 19 2 3 3 3 8 7 2 2 2 2 2 2 2 2 3 4 2 5 3 7 11 15 5 4 3 4 4 5 6 6 10 9
17 14 13 13 15 16 17 18 18 19 21 22 24 21 9 4 1 6 15 10 7 2 2 3 1 4 4 3 3 2 2 2 2 2 2 2 1 2 4 6 8 10 11 4 7 4 4 6 7 6 6 9 9 8
18 14 15 13 14 16 17 16 19 19 22 25 15 2 1 2 1 1 4 6 9 6 3 3 1 3 2 2 3 1 2 2 3 3 2 3 2 4 4 8 10 9 6 8 2 4 5 5 7 7 7 7 9 9
17 14 14 13 13 15 17 15 17 20 22 10 5 1 1 1 8 2 4 2 3 3 3 3 2 2 2 2 2 3 2 2 2 3 3 2 3 1 10 9 8 10 8 7 6 4 1 2 7 8 8 7 8 10
17 15 14 13 13 15 15 15 14 19 8 5 4 1 5 8 3 2 2 3 3 3 3 2 2 3 2 2 3 0 2 1 2 2 2 2 1 5 11 11 11 10 10 8 7 8 6 5 7 8 8 7 9 12
18 15 13 12 12 12 12 14 13 12 5 4 9 6 3 2 2 2 2 2 2 1 2 2 2 1 1 1 2 0 2 1 3 1 1 2 2 6 9 12 14 13 12 10 8 6 6 5 7 8 8 9 14 16
17 14 14 11 11 11 8 12 11 13 6 1 1 2 1 1 3 3 2 2 1 3 3 3 1 1 2 2 2 2 2 3 1 1 2 1 3 7 9 10 12 12 11 11 10 9 5 2 8 11 9 16 20 19
19 16 12 11 10 12 8 9 10 6 2 1 1 3 3 2 4 2 1 1 0 1 3 2 1 1 1 2 1 3 1 2 1 1 2 1 6 9 9 8 9 12 12 10 8 7 5 4 5 10 16 21 22 19
20 13 12 12 10 12 6 8 9 1 2 1 2 3 4 2 1 1 1 1 1 1 2 1 1 1 1 1 0 2 1 3 3 3 1 3 5 7 9 10 9 9 9 7 6 4 3 4 6 7 11 16 17 19
17 11 13 12 7 4 4 7 1 2 1 1 3 2 2 1 1 1 2 2 1 1 0 0 0 1 2 2 2 4 2 4 2 1 2 3 5 7 8 9 8 8 7 6 7 5 0 4 6 8 13 15 17 20
15 6 10 4 6 5 4 2 2 1 2 2 3 3 1 1 1 3 1 1 3 1 1 1 3 3 1 2 2 2 2 2 1 2 2 3 4 6 6 7 8 10 9 10 8 6 2 3 10 11 7 10 18 19
10 14 13 7 9 3 3 3 2 1 4 3 2 2 2 1 1 2 1 2 2 1 0 1 1 3 4 3 3 3 2 1 1 2 2 4 5 5 7 5 10 12 11 10 9 6 1 8 5 4 14 18 19 20
19 18 13 12 9 3 2 2 2 2 4 2 2 1 1 1 1 1 1 3 2 0 0 1 2 3 3 1 3 3 2 2 2 2 3 6 3 7 10 13 15 11 11 11 9 6 4 5 8 13 16 17 14 16
17 19 14 14 10 3 2 1 2 2 2 2 1 1 0 1 1 1 2 2 1 1 1 4 4 3 3 3 1 2 2 3 2 2 3 2 6 9 9 10 10 14 14 11 9 4 3 2 8 13 17 17 16 16
19 15 20 17 3 1 2 2 1 2 1 1 1 1 2 1 1 1 1 2 2 3 3 3 3 2 3 3 5 5 3 4 3 3 3 3 5 9 11 12 12 12 8 8 4 7 7 8 10 13 16 16 16 17
9 20 6 4 2 1 0 0 2 1 1 1 1 0 1 1 2 3 1 4 4 4 4 3 2 2 2 2 3 6 4 4 5 6 7 8 3 2 3 9 9 7 10 12 13 11 13 12 12 15 18 17 17 20
19 8 5 3 3 3 3 1 1 2 2 2 1 1 2 1 2 2 2 3 4 4 4 2 4 4 4 3 3 5 6 8 3 5 7 8 11 13 14 13 10 10 8 12 15 17 17 13 13 17 19 19 21 19
12 4 4 5 3 4 2 2 1 1 1 2 2 2 2 2 1 2 3 3 3 1 2 3 4 2 2 1 2 3 11 11 11 11 11 11 4 10 14 17 17 17 19 21 19 18 16 15 15 17 17 18 20 21
6 4 5 4 2 3 3 3 3 3 3 3 3 3 3 1 1 3 3 3 2 2 3 3 3 2 3 2 2 7 8 10 8 4 9 10 15 17 15 16 19 18 13 15 12 14 15 16 18 18 19 18 20 20
5 7 8 8 3 5 6 5 6 5 3 4 5 1 1 2 1 6 3 3 3 3 4 6 6 3 4 7 4 2 5 7 8 6 14 15 15 12 5 6 6 11 11 14 16 14 15 16 16 17 17 19 22 22
7 6 3 2 3 3 2 1 2 2 5 5 3 4 3 3 6 4 2 3 3 5 9 16 16 8 5 3 8 8 8 12 15 17 20 21 21 22 21 15 12 19 18 18 18 17 18 18 18 19 19 19 23 23
4 5 8 5 2 1 4 3 4 6 4 3 5 5 6 7 4 3 4 2 6 5 6 6 9 13 12 9 10 13 16 14 16 19 22 26 27 26 27 28 29 26 23 23 23 22 20 21 21 22 22 21 21 23
3 4 5 4 3 2 4 7 5 3 2 4 5 4 4 3 3 2 3 4 7 8 5 5 8 8 10 11 12 13 14 14 5 6 11 9 7 12 16 17 19 19 18 19 18 21 24 24 25 25 25 24 26 28
4 3 4 4 6 6 3 2 1 0 0 1 1 2 2 3 4 6 9 9 9 8 8 8 8 7 6 6 10 14 14 15 17 15 8 9 8 15 14 17 21 20 19 19 19 19 16 19 20 21 24 25 25 26
4 3 3 3 3 1 1 1 2 0 2 2 2 2 3 3 7 9 12 13 11 9 8 9 10 9 10 11 9 3 7 11 9 14 19 25 26 25 25 24 22 20 19 19 17 16 16 19 21 23 24 23 25 26
2 3 4 4 2 1 1 1 1 1 2 2 2 2 3 2 3 3 5 9 10 8 12 9 8 6 4 7 11 13 17 22 23 24 25 25 25 25 24 23 21 19 17 15 15 16 25 26 23 23 24 25 27 28
2 2 2 3 2 1 0 3 3 3 1 1 2 2 2 3 6 3 3 11 9 6 7 5 5 5 6 8 11 14 18 18 18 19 19 19 22 21 17 14 10 11 12 17 20 25 27 27 25 25 26 29 30 30

GFSWCAN_925_spd_024.txt.gz
Wind_Speed
12 11 11 10 9 10 11 13 14 13 12 13 13 12 10 9 8 5 7 1 3 3 7 6 5 4 4 2 4 3 3 2 2 2 3 3 2 3 2 4 6 7 5 3 4 4 7 5 3 3 4 3 3 4
15 12 12 8 9 9 11 14 14 16 13 12 13 13 12 12 10 8 5 6 6 4 5 15 23 30 16 6 3 3 3 3 4 3 1 1 1 1 2 2 2 4 6 4 7 5 5 3 5 4 1 3 3 3
16 12 11 9 9 10 11 14 16 16 17 13 13 13 13 13 13 11 12 10 7 3 6 4 9 26 26 33 29 3 1 3 2 3 3 1 1 2 2 4 2 3 2 3 1 4 6 9 3 2 2 3 5 4
13 14 15 13 10 10 12 13 16 16 17 12 13 15 15 15 15 14 12 11 6 3 4 6 8 7 17 19 27 24 4 5 5 2 2 2 2 3 2 2 2 4 5 3 5 8 6 3 3 3 2 1 3 1
16 17 14 13 12 12 12 14 16 15 17 14 15 16 17 15 16 16 15 16 16 6 3 7 24 29 23 15 23 20 10 5 2 2 2 3 1 2 2 1 3 3 5 3 4 5 4 4 2 2 3 2 2 4
18 18 13 14 15 15 14 15 16 17 17 17 17 17 16 16 15 4 2 3 10 21 2 4 6 6 15 20 14 8 4 3 2 3 2 2 1 3 2 3 4 5 3 5 5 4 4 6 4 2 3 3 4 5
17 16 15 16 13 13 14 16 17 17 19 18 19 18 18 11 5 3 3 3 3 14 2 3 3 5 20 11 3 2 4 1 2 2 2 2 2 3 2 3 3 4 7 11 9 6 5 5 5 6 4 4 7 6
16 17 19 14 12 12 15 16 18 16 19 21 21 13 2 1 2 4 9 8 3 3 2 3 5 3 4 3 3 2 3 1 1 2 2 2 1 2 3 4 5 6 10 8 11 7 5 3 5 4 4 5 6 6
17 14 15 13 12 13 15 15 15 18 20 21 9 2 3 1 1 2 2 11 7 3 3 3 4 3 1 3 3 2 3 2 1 3 2 3 3 3 3 7 8 6 5 12 12 7 3 3 6 6 6 6 6 6
16 16 15 14 12 13 14 14 14 16 21 7 2 1 1 1 3 4 4 2 2 3 3 3 4 2 1 2 2 2 2 2 3 3 3 2 2 6 5 6 7 8 8 7 7 6 2 3 5 7 8 6 6 7
18 15 16 13 12 12 12 13 13 16 6 4 3 2 4 6 2 2 2 3 3 3 3 4 2 2 3 3 2 1 2 1 2 2 2 2 2 3 8 7 7 7 8 9 8 10 11 9 6 6 6 8 8 12
17 16 15 13 9 11 10 10 10 11 7 4 6 6 3 1 1 1 3 2 3 2 3 3 3 2 1 1 3 2 2 1 2 2 2 2 1 4 7 10 11 10 10 10 8 8 8 7 7 6 7 9 13 16
16 17 13 12 11 10 8 10 8 10 6 0 1 1 0 1 2 3 2 2 1 3 3 3 3 2 2 3 2 2 2 2 3 1 3 1 2 5 7 8 10 10 10 10 10 12 12 5 3 7 6 12 15 16
19 13 13 13 10 9 8 9 8 7 1 1 1 2 3 3 3 1 1 2 2 2 3 2 2 2 2 3 1 2 1 2 2 2 4 1 3 6 7 8 8 11 11 10 9 8 5 5 6 8 9 15 16 14
19 17 15 12 10 8 10 6 7 2 0 1 2 3 4 2 1 1 1 1 1 2 2 1 1 0 2 1 1 2 1 3 4 4 2 2 3 4 5 7 8 9 9 9 9 9 7 6 3 4 8 11 11 14
18 14 15 13 9 6 4 4 3 2 1 1 3 2 2 1 2 1 1 1 1 3 2 1 0 1 2 2 1 4 2 5 3 2 2 1 3 4 4 5 6 7 8 9 11 11 9 6 2 3 8 11 13 17
21 6 10 11 7 7 4 2 2 1 3 3 3 3 2 2 3 1 1 1 1 1 1 0 3 4 1 2 3 3 3 2 3 2 2 2 3 5 5 6 8 10 8 10 11 12 11 7 2 4 4 8 13 16
9 18 15 13 12 9 3 3 2 1 4 3 2 2 2 2 1 1 1 2 0 0 1 1 1 2 3 3 2 3 2 1 1 2 2 2 3 2 5 5 9 12 12 12 13 13 10 6 1 2 4 9 12 15
20 21 20 16 12 5 2 2 1 3 4 2 2 1 1 1 0 1 1 2 1 0 1 1 3 3 3 2 3 2 2 3 3 2 2 4 1 4 7 10 10 11 12 15 13 10 11 8 7 6 7 11 9 13
18 20 19 16 11 4 2 1 2 2 2 2 1 1 1 0 1 1 1 1 1 2 0 3 5 3 3 3 2 3 2 2 3 1 2 2 2 5 9 11 11 16 15 16 16 11 10 9 7 6 8 13 12 13
16 14 18 21 4 2 2 2 1 3 2 1 1 0 2 1 1 1 1 2 2 3 3 4 3 3 1 3 6 6 4 4 4 4 3 2 3 7 9 10 13 11 9 9 8 10 12 10 12 9 9 12 14 16
8 20 7 5 2 1 1 2 3 1 1 2 1 0 2 1 2 2 1 1 3 4 4 3 3 3 4 3 4 8 7 9 5 4 5 6 3 2 3 11 12 5 10 9 11 11 13 19 15 11 11 13 12 15
18 8 5 3 2 2 4 1 1 1 2 2 2 2 2 1 2 2 2 3 4 4 4 3 3 3 5 6 8 8 10 10 4 6 6 7 9 12 13 12 11 12 8 13 15 19 18 17 15 11 11 11 14 14
9 6 5 6 3 4 2 1 1 1 1 1 2 3 2 2 1 2 4 3 3 1 3 5 3 3 2 2 2 3 13 12 11 8 7 7 4 9 12 15 17 18 17 21 19 15 14 14 14 11 12 16 15 15
5 6 5 4 1 4 3 2 3 2 3 3 3 3 2 1 1 3 3 3 2 2 3 3 2 2 3 2 1 9 12 15 9 4 11 11 14 17 16 18 19 18 16 16 16 12 13 13 15 13 16 15 14 15
7 8 10 8 3 6 6 5 6 6 3 4 4 1 0 1 1 6 3 3 3 4 5 7 7 4 3 6 3 2 8 15 15 7 11 12 14 13 5 5 7 9 9 11 15 17 14 14 17 15 16 18 16 15
6 6 3 2 4 4 2 1 1 2 4 5 3 4 3 3 6 4 2 2 3 5 10 17 17 8 4 4 10 10 9 10 12 13 17 17 16 17 18 14 11 16 15 15 17 18 19 16 15 17 18 18 20 20
3 5 8 5 2 1 5 3 5 6 4 3 4 5 5 7 4 3 4 1 3 5 7 8 11 12 11 9 7 7 8 10 13 17 20 24 21 19 21 25 27 25 21 20 20 20 20 20 19 18 20 19 18 23
3 3 5 4 3 3 5 5 6 4 3 4 5 4 4 3 2 2 2 4 6 7 5 4 4 6 6 7 8 10 10 9 2 4 7 8 3 10 14 13 14 13 13 14 14 16 19 21 21 20 21 22 21 24
4 3 3 4 6 6 4 3 2 2 1 1 1 2 2 3 5 7 9 8 8 8 7 6 5 7 6 4 4 7 7 9 11 12 5 8 7 16 19 22 23 21 18 16 17 19 18 17 18 21 18 18 20 20
5 3 3 3 4 1 1 1 1 1 2 1 1 2 3 3 7 9 15 16 14 10 7 7 9 10 9 9 6 1 4 5 5 12 18 23 26 28 28 27 24 20 19 19 17 17 17 16 14 20 22 20 21 20
2 3 4 4 2 1 1 1 0 1 2 1 2 1 3 3 3 3 4 7 7 6 12 10 8 6 5 5 6 8 11 16 19 22 22 22 26 27 25 23 20 17 16 16 16 16 14 14 20 20 20 20 22 24
2 2 3 4 3 3 1 2 2 3 1 1 2 2 2 3 6 3 3 9 6 3 8 7 4 5 5 6 8 11 12 17 20 20 19 20 22 21 21 21 17 12 11 12 13 11 16 20 20 21 22 24 23 24

GFSWCAN_925_spd_027.txt.gz
Wind_Speed
15 14 14 11 12 10 10 11 13 12 16 15 10 11 11 9 10 7 8 5 1 2 5 4 3 3 4 2 3 2 3 1 2 3 3 3 3 4 3 3 6 6 6 3 4 4 7 5 4 3 4 3 3 4
16 16 15 13 11 9 12 13 13 13 17 16 12 11 11 11 11 10 7 8 10 4 5 20 26 29 18 16 3 4 2 3 4 3 1 2 2 2 3 3 1 3 6 4 7 5 4 3 4 4 2 3 4 3
13 13 15 13 11 14 16 17 13 12 15 16 19 10 13 12 13 12 15 11 6 3 6 6 9 19 21 28 25 2 3 2 3 3 3 2 2 3 3 4 2 3 2 3 0 4 6 7 6 4 3 4 4 4
13 17 17 14 15 14 14 13 14 12 14 16 20 12 14 14 15 14 12 8 5 3 4 6 8 11 9 9 17 29 17 7 1 3 2 2 2 2 3 3 3 4 2 2 4 6 7 4 4 2 2 3 3 1
19 15 15 16 14 14 14 14 15 15 14 17 18 15 16 15 14 15 16 18 19 6 3 6 16 37 30 29 21 27 20 11 3 2 1 3 1 2 1 1 3 4 5 3 3 3 5 7 4 3 5 4 4 4
21 17 14 17 14 15 15 15 15 15 17 16 20 16 17 15 13 6 3 3 11 17 3 4 6 5 4 20 18 13 11 7 2 3 2 2 2 3 2 2 4 4 4 3 3 7 12 13 9 5 5 3 3 5
21 16 17 14 13 14 14 12 16 16 17 17 18 21 19 12 7 3 3 3 3 9 2 3 4 3 9 10 7 5 8 3 3 2 2 3 2 4 2 4 2 3 4 7 3 7 6 5 6 3 4 3 4 3
10 15 15 13 15 13 12 15 17 18 16 19 22 14 5 3 3 4 7 7 4 4 1 3 4 4 9 5 3 3 3 2 2 2 2 2 2 2 4 1 3 5 9 8 4 6 9 10 6 3 3 4 4 4
13 11 13 13 12 11 11 14 16 16 18 22 12 3 3 3 2 2 6 10 10 5 3 2 3 1 4 2 3 2 2 2 1 3 2 3 3 4 2 2 5 6 4 11 13 11 11 8 6 4 5 5 5 5
12 12 11 10 10 12 12 14 15 15 19 12 3 1 2 1 2 3 1 2 2 2 3 3 3 1 2 2 2 2 2 2 1 3 3 3 2 6 4 2 4 6 6 7 8 7 5 5 4 5 7 5 6 6
8 11 12 9 10 11 11 13 13 15 9 5 4 1 5 6 1 2 2 3 2 3 3 3 3 2 4 2 2 2 2 1 3 2 3 2 2 3 4 4 5 5 6 7 8 10 10 10 10 8 7 7 7 9
17 12 13 9 11 9 10 9 11 10 7 6 7 7 4 1 1 2 3 2 3 2 2 3 3 3 2 2 3 1 2 0 2 1 1 2 2 3 4 4 6 6 7 9 9 9 9 9 8 8 6 7 11 15
18 11 10 11 10 9 9 7 9 9 10 1 1 1 2 2 3 4 3 2 2 4 3 3 2 2 0 2 2 2 2 2 2 1 3 1 2 2 5 5 6 6 9 9 10 11 12 11 10 3 3 6 14 14
13 15 11 11 11 10 8 7 9 8 2 0 1 4 3 3 3 3 2 2 2 2 4 4 2 2 2 3 1 2 1 2 1 2 4 2 2 1 4 4 4 7 7 8 8 10 8 9 7 9 4 7 12 11
10 15 11 11 11 8 7 7 5 4 1 1 1 4 4 3 2 2 2 1 1 3 3 3 2 1 2 1 1 2 1 3 4 3 1 2 1 2 4 4 6 7 7 7 8 7 8 7 5 4 3 4 9 14
8 13 17 10 8 7 4 3 3 2 2 1 2 2 3 1 3 2 2 2 1 2 2 1 2 1 2 1 2 4 2 5 3 2 2 2 2 1 3 4 5 7 9 9 10 11 11 10 8 5 2 5 8 12
13 6 12 12 10 7 5 2 1 0 3 2 3 3 2 2 3 2 1 1 2 2 1 0 2 3 1 2 3 3 3 1 2 2 1 1 0 2 4 4 5 8 9 11 12 13 13 15 10 4 1 2 6 9
9 13 12 18 14 9 3 3 1 1 5 3 2 2 2 2 1 2 1 1 1 1 2 1 1 3 3 3 3 3 2 2 2 3 2 1 0 0 4 4 8 10 11 12 14 15 14 14 9 6 6 3 5 8
12 9 18 20 12 5 3 1 2 3 5 2 2 2 2 2 1 0 0 1 1 1 2 2 3 3 3 3 3 3 2 2 3 3 2 2 3 1 2 5 8 10 12 13 12 11 13 13 10 11 9 5 5 8
8 7 23 18 10 3 2 1 1 2 3 2 2 2 2 1 1 1 1 1 0 2 0 3 4 3 3 3 3 3 3 4 3 2 1 1 3 0 4 5 8 12 12 10 10 12 13 14 15 14 10 7 7 8
10 15 18 16 4 2 2 2 2 3 2 1 2 2 2 1 2 1 2 2 2 3 3 5 4 3 1 1 3 4 4 4 4 3 3 1 2 3 5 5 7 9 5 8 6 9 10 10 17 18 13 10 9 10
7 23 6 7 2 2 0 4 3 1 1 2 2 1 2 2 2 2 1 1 3 4 4 3 3 3 3 3 3 7 6 10 8 5 3 2 1 1 2 5 8 4 9 9 12 11 14 19 20 15 14 13 9 10
14 11 5 4 2 3 3 2 1 1 1 3 2 3 2 2 2 1 3 3 4 4 4 3 3 2 3 5 8 7 10 14 4 7 7 7 6 8 10 11 9 9 7 13 11 14 18 15 12 13 16 12 9 10
9 7 5 4 6 4 2 1 1 0 2 1 1 4 3 2 0 1 4 3 3 1 3 4 3 3 2 2 2 2 14 15 10 8 10 9 4 9 9 10 11 12 14 17 17 16 12 10 11 12 16 13 11 11
3 4 4 5 0 3 3 1 1 2 4 4 3 3 2 1 1 3 4 3 2 2 3 3 3 2 3 2 1 8 13 17 9 5 12 16 13 12 13 15 17 17 13 15 18 15 12 12 12 12 14 13 14 13
5 6 8 7 3 6 6 5 6 7 4 4 5 0 1 1 1 6 3 3 3 3 4 7 7 4 2 4 3 2 11 17 16 7 12 13 15 11 4 3 6 11 7 9 11 13 14 14 13 13 14 14 14 14
5 7 3 1 2 3 2 1 1 3 5 6 3 3 2 3 6 4 2 2 2 4 9 16 16 8 3 4 12 14 9 9 14 11 9 8 10 13 15 13 10 15 11 10 12 16 19 19 19 17 15 15 16 17
5 5 8 5 3 1 5 4 6 7 5 3 4 4 5 6 4 2 3 2 3 1 3 9 13 13 10 8 6 6 9 11 14 16 17 21 19 16 14 18 20 18 17 17 17 18 19 20 19 19 19 19 19 17
5 4 4 4 1 3 6 7 6 4 4 5 6 4 4 3 2 2 2 3 3 4 3 5 6 8 7 7 7 10 11 10 6 3 5 6 2 9 5 8 11 13 13 14 13 12 16 20 22 22 22 21 20 17
5 5 4 5 5 7 5 4 3 1 1 2 1 1 2 3 6 8 9 9 9 10 11 11 8 11 8 9 6 8 10 12 12 11 4 5 6 11 18 20 21 20 19 17 17 18 17 17 18 20 20 18 17 16
6 3 3 4 5 3 2 2 2 1 2 2 2 2 3 4 8 11 18 20 16 12 9 7 9 11 10 10 8 2 3 4 6 8 11 17 21 22 21 20 21 20 18 16 16 18 19 18 17 17 17 17 21 18
3 5 5 5 3 1 1 1 1 0 2 2 2 1 2 2 3 3 4 6 8 7 14 12 11 10 10 9 5 6 7 8 10 12 16 19 21 20 21 23 25 20 18 17 17 17 18 18 18 18 17 20 20 19
2 2 2 3 2 2 2 2 1 2 1 2 3 2 2 2 6 3 3 8 5 3 8 9 8 6 3 3 5 5 7 8 10 12 14 16 17 18 21 24 19 17 17 14 14 15 16 17 15 15 15 17 19 19

GFSWCAN_925_spd_030.txt.gz
Wind_Speed
13 13 14 12 12 13 12 11 18 16 15 14 15 10 8 8 8 8 7 6 1 2 6 3 3 1 4 3 2 3 2 1 2 3 3 3 3 5 2 3 6 7 7 4 5 4 7 5 4 4 3 3 3 3
14 14 16 17 14 14 12 18 19 16 14 13 15 16 11 7 8 8 4 8 11 4 5 13 23 25 17 18 5 4 3 4 4 3 1 2 2 2 3 3 1 4 6 4 7 5 3 3 2 3 4 4 3 2
15 14 12 13 17 12 15 17 16 17 13 13 15 16 18 8 10 10 13 8 5 3 6 8 9 20 18 28 27 4 3 1 1 1 4 2 2 3 4 4 3 3 4 2 1 3 5 6 7 4 4 4 3 3
15 16 14 15 14 14 16 14 16 14 14 13 11 16 19 13 12 11 10 6 4 3 4 5 8 8 10 7 25 31 20 7 5 1 2 3 3 3 3 2 3 4 3 4 4 5 5 1 2 2 3 4 4 4
18 21 19 17 15 15 15 14 17 17 16 14 14 17 19 13 13 12 15 17 16 6 4 8 16 30 28 25 18 21 22 8 3 3 2 3 2 3 1 1 3 4 5 4 4 4 3 6 6 3 5 6 5 5
19 21 21 16 11 15 11 14 14 14 19 16 16 18 16 15 10 4 2 4 1 9 4 4 5 5 10 13 22 20 14 6 4 3 3 2 2 3 3 2 4 3 1 2 2 2 5 9 9 5 6 7 6 5
17 20 23 14 13 11 13 13 14 17 15 16 19 19 18 9 6 4 3 2 1 3 2 4 4 4 4 4 4 6 13 3 3 3 3 3 2 4 2 3 2 2 3 4 1 3 5 2 4 12 8 6 2 1
16 13 9 13 11 10 10 11 13 17 17 17 21 17 7 3 4 6 13 9 3 2 3 3 4 4 7 4 4 3 5 5 4 2 2 3 2 2 4 4 2 1 5 3 3 3 5 11 11 8 3 2 4 4
18 11 9 8 8 10 9 11 12 14 18 19 16 5 1 2 1 2 7 8 9 3 3 2 3 3 3 2 2 4 4 3 2 2 2 3 3 4 4 4 1 1 2 6 7 7 7 5 9 7 3 4 5 5
9 9 10 7 6 6 7 10 12 13 18 15 4 2 1 1 5 6 2 1 2 2 2 3 2 3 4 3 2 2 2 2 2 2 3 2 3 3 3 2 2 3 4 4 5 6 5 8 7 7 7 6 6 5
13 7 9 10 7 5 8 9 10 15 8 6 4 1 6 7 3 2 2 2 2 3 3 3 4 4 4 2 2 2 1 1 1 1 2 2 3 4 2 2 2 3 4 5 5 7 7 9 10 10 10 7 7 8
15 12 10 9 7 5 7 8 8 10 5 7 8 8 4 2 2 2 2 2 3 2 2 3 4 3 3 2 3 2 2 0 2 2 1 3 1 2 2 3 4 4 4 5 5 7 8 9 10 9 8 7 8 12
11 17 10 7 6 5 7 7 6 10 11 2 1 2 1 1 3 3 2 2 2 3 3 3 3 3 2 3 2 1 2 1 1 2 3 2 3 2 3 3 3 5 7 6 7 10 11 12 10 9 7 6 3 9
9 9 11 9 7 6 6 5 8 9 3 1 0 4 2 2 2 2 2 3 2 3 5 5 2 1 1 1 1 2 1 2 1 2 4 2 3 3 2 3 4 6 7 7 7 9 9 10 10 12 10 4 4 7
8 8 11 9 9 8 6 4 7 4 1 1 1 3 3 3 3 3 2 2 2 2 3 3 3 1 1 1 1 2 2 3 3 3 2 2 3 3 3 4 4 5 5 5 8 7 10 11 10 8 7 4 2 7
7 7 15 12 9 6 5 3 4 1 1 2 2 3 3 2 3 3 2 2 1 3 2 2 3 1 1 1 2 4 3 4 3 2 2 3 3 3 2 3 3 3 4 6 8 9 9 10 10 10 6 4 2 5
10 5 7 14 9 9 4 2 1 3 2 2 3 3 2 2 4 2 2 2 3 2 2 2 3 2 1 1 2 3 3 3 3 2 2 4 4 4 1 2 3 4 5 6 8 9 10 14 11 11 6 10 5 5
6 8 10 14 15 7 1 2 2 2 4 3 1 3 2 3 2 3 2 1 2 2 2 2 3 2 3 3 3 3 2 1 1 4 4 4 3 4 2 2 4 6 7 9 9 10 11 13 9 8 12 11 7 4
4 6 13 16 13 4 1 1 1 2 5 2 3 2 2 3 2 2 2 1 1 1 2 2 3 3 3 3 3 2 2 3 4 3 2 3 5 5 3 3 4 7 8 8 9 8 10 11 10 13 13 10 7 7
4 9 16 18 10 4 2 2 0 2 3 3 2 2 2 2 2 1 1 2 1 1 2 3 5 3 3 3 3 3 3 3 3 3 1 2 5 6 3 1 2 6 6 7 9 8 9 12 14 17 14 12 9 9
8 12 17 13 3 3 2 2 2 3 2 1 2 1 3 2 2 2 2 2 2 3 4 5 4 3 2 2 3 4 4 5 4 3 3 2 6 6 4 3 0 3 3 6 6 10 12 10 16 17 14 15 13 10
6 14 5 5 2 2 1 4 3 1 1 2 2 2 2 2 2 2 0 2 3 4 5 4 3 3 3 4 4 9 7 11 8 7 6 9 3 1 2 4 1 1 5 6 8 10 13 15 14 12 10 15 14 11
9 7 2 3 1 2 3 1 0 2 1 3 3 3 3 2 3 2 3 3 4 4 5 3 4 4 2 4 6 7 11 15 4 7 8 7 7 6 6 5 5 5 5 11 9 10 12 12 11 9 10 12 14 10
7 5 4 4 4 3 2 1 0 0 2 1 0 4 4 3 2 1 4 4 3 2 3 4 3 2 1 1 2 3 12 15 10 8 10 10 2 5 7 8 7 9 11 14 16 15 13 10 7 8 11 13 12 10
4 5 4 6 1 3 3 1 1 2 4 4 3 4 3 2 1 3 4 4 2 2 2 3 3 3 3 1 0 5 11 16 8 5 12 15 12 7 8 11 12 12 12 14 14 12 10 8 8 9 10 11 14 13
5 6 9 7 3 5 6 4 6 7 3 3 6 2 1 2 1 6 3 2 2 2 2 4 5 3 2 3 2 2 11 17 15 6 12 15 18 12 4 2 3 8 7 7 10 12 13 12 11 12 15 15 14 13
6 7 4 1 3 4 1 1 1 3 4 6 3 3 2 2 5 4 3 2 2 2 6 8 13 7 2 4 11 7 3 8 14 9 7 6 9 11 11 9 7 14 9 9 11 13 17 20 20 19 20 19 16 15
7 5 7 5 2 1 4 3 5 6 4 3 4 4 6 8 5 3 4 3 6 6 5 5 8 9 7 5 4 5 8 9 12 11 11 14 16 15 16 16 16 17 17 17 16 15 17 19 21 21 19 19 19 16
5 2 4 4 2 3 6 7 5 4 4 5 5 4 5 4 3 2 4 3 4 5 2 2 4 7 7 7 7 8 8 9 8 3 5 5 3 9 8 5 8 12 14 16 16 15 16 17 19 20 20 20 19 18
6 4 4 5 7 8 6 7 4 3 2 2 2 3 3 3 6 10 11 10 8 10 12 11 10 13 9 9 5 9 12 13 14 12 4 5 4 3 10 16 18 19 17 17 18 18 17 16 18 18 18 17 16 18
5 3 2 3 5 4 3 1 3 1 1 0 0 3 3 4 8 13 20 23 22 17 11 9 9 14 13 11 9 2 4 7 10 12 15 15 15 18 20 21 19 18 18 18 18 17 17 16 16 17 17 17 18 17
4 8 6 6 4 3 2 2 2 2 1 1 3 1 3 2 4 3 4 6 8 8 15 15 13 14 15 16 9 8 5 4 6 8 9 13 15 17 19 20 19 19 21 21 18 16 15 16 17 17 16 17 18 17
2 2 2 2 1 1 2 3 2 2 1 2 3 3 3 3 6 3 3 8 6 3 6 7 7 6 5 6 6 6 6 6 7 9 11 13 15 17 19 19 20 20 18 17 16 16 14 13 14 16 16 14 11 13

GFSWCAN_925_spd_033.txt.gz
Wind_Speed
11 9 11 12 14 15 13 14 16 17 15 15 14 13 15 8 4 7 6 7 2 2 5 4 3 2 3 3 2 3 1 1 2 4 3 4 4 5 4 5 7 8 7 4 4 3 8 5 4 5 2 1 3 2
11 9 11 13 15 12 15 11 13 15 15 15 16 12 14 16 4 5 4 7 8 3 5 14 20 18 15 9 2 3 3 3 4 3 1 3 3 2 5 3 1 4 6 5 7 6 4 3 1 1 4 4 2 2
10 11 10 10 13 14 11 11 13 14 14 16 13 11 12 15 12 7 10 9 5 2 6 8 9 15 20 27 25 4 3 4 2 1 3 3 3 4 5 5 4 4 4 3 1 4 6 5 3 3 1 3 1 3
11 12 12 13 15 15 12 11 13 14 16 15 14 14 10 15 16 9 10 6 4 3 4 4 6 7 8 14 23 30 18 2 5 5 3 3 3 3 4 2 3 4 6 5 4 5 4 1 3 1 1 2 3 4
12 14 15 17 18 16 13 11 11 14 15 15 13 10 16 17 12 11 12 13 13 4 3 5 16 16 21 20 20 25 21 10 2 4 3 4 3 3 1 2 3 5 6 4 4 4 2 4 3 3 5 6 6 6
10 13 14 16 19 9 10 9 13 13 14 14 14 16 16 18 11 4 2 1 5 9 2 4 4 3 2 16 17 12 9 5 4 4 3 2 2 3 4 4 4 4 4 4 4 3 5 7 7 1 3 6 6 6
10 12 10 13 9 9 7 9 11 12 15 17 17 18 19 9 5 3 2 2 2 4 2 4 4 3 2 4 2 3 3 2 4 3 3 3 3 4 3 3 4 5 5 3 3 1 4 3 2 7 6 7 9 3
14 12 9 7 10 6 7 8 11 13 14 18 18 18 9 4 2 4 3 6 5 2 2 3 4 3 10 3 3 4 4 2 3 3 2 3 2 2 3 4 4 3 0 2 5 3 4 6 6 7 7 3 3 4
7 11 5 2 4 7 8 7 10 13 15 20 17 6 1 1 1 1 7 8 11 3 2 2 2 3 4 2 2 4 3 5 3 3 3 3 2 3 4 4 5 3 2 0 5 5 6 4 6 6 6 4 4 5
7 5 2 4 1 3 5 8 11 12 18 15 5 1 1 1 6 8 2 2 2 2 2 3 2 3 2 1 1 2 4 3 3 2 3 1 2 1 2 4 5 3 1 2 3 4 3 3 7 7 6 6 6 6
9 5 3 4 5 4 4 8 11 13 8 6 5 2 5 8 2 2 1 2 2 3 3 3 4 4 3 2 3 3 2 1 2 2 3 3 3 3 4 4 3 2 2 3 5 5 6 8 8 8 9 7 8 9
7 7 5 5 4 3 4 8 10 10 10 8 9 7 4 2 1 2 2 2 3 2 2 3 3 3 4 2 2 2 2 1 2 2 2 2 0 2 3 3 3 3 3 4 2 4 5 6 7 6 6 6 8 11
7 4 6 5 3 1 4 7 9 12 15 3 1 1 2 1 2 1 3 2 2 4 3 3 5 3 3 2 2 1 1 1 0 2 3 2 2 2 3 2 3 5 5 5 5 7 8 9 10 8 8 10 12 6
5 5 6 7 5 2 4 6 9 13 3 2 2 4 0 2 2 2 2 2 3 4 7 6 3 2 2 2 0 1 1 1 1 2 4 2 3 4 3 2 3 4 5 4 5 7 7 8 9 10 10 11 9 5
3 4 6 7 7 6 3 3 6 9 2 1 2 2 3 2 3 3 2 3 3 3 5 4 3 2 2 2 1 1 1 2 3 3 2 3 4 4 3 1 4 4 4 4 5 5 7 9 8 8 12 12 10 6
4 4 8 8 8 6 3 1 3 1 2 2 2 1 3 1 3 3 2 2 1 3 3 2 3 3 2 1 1 4 3 3 3 3 3 5 5 5 3 2 2 2 3 4 5 6 7 9 9 10 10 11 8 5
6 3 5 10 8 8 5 1 2 4 2 1 3 2 2 3 4 2 2 2 4 3 2 3 3 2 2 1 2 2 3 3 3 2 2 5 6 5 4 3 2 2 3 5 6 8 9 11 10 10 7 14 11 7
3 4 5 12 12 8 1 0 3 2 2 3 2 3 3 3 3 3 2 1 2 2 2 2 3 3 3 2 3 2 1 2 0 2 4 3 4 5 5 4 3 2 2 4 4 4 8 10 8 7 12 14 10 8
1 4 12 12 8 1 1 0 1 3 5 2 3 2 2 3 3 2 1 1 1 1 2 2 3 3 3 3 3 2 2 3 3 3 2 3 6 7 6 6 4 3 2 2 3 4 4 5 6 11 13 12 10 10
2 6 10 12 9 1 3 2 0 2 2 2 1 2 2 3 2 2 1 2 2 1 2 3 5 3 3 3 3 2 2 3 3 3 2 3 6 8 7 6 3 0 1 1 3 3 5 7 7 12 11 9 11 12
9 9 11 9 2 2 2 1 2 3 2 1 1 1 3 3 2 1 2 1 2 3 4 6 6 4 3 2 3 3 3 5 5 4 4 3 7 11 8 6 4 1 1 3 3 6 7 7 11 11 9 7 10 13
6 13 3 5 2 1 1 2 2 1 1 2 2 2 2 2 3 2 2 3 4 4 5 3 3 4 3 4 5 12 7 11 8 5 6 13 4 2 3 9 7 3 5 7 7 8 9 9 10 9 7 8 10 14
11 6 2 2 1 2 3 1 1 1 1 3 2 3 3 2 3 2 3 4 4 4 5 2 3 4 2 4 4 6 11 15 4 7 9 8 7 9 10 12 9 7 5 8 7 8 10 10 11 8 7 9 11 12
7 4 2 3 5 4 2 1 0 1 1 2 1 4 3 3 2 2 4 3 3 2 2 3 2 1 1 1 3 3 12 16 10 9 11 12 3 8 11 10 10 10 9 11 13 13 11 10 8 9 10 13 13 13
4 4 4 6 1 3 3 2 1 2 4 2 1 4 3 2 1 3 3 3 2 2 2 2 2 3 3 1 2 5 11 16 8 5 13 17 10 5 7 9 11 12 11 13 13 9 6 6 7 8 9 9 12 15
5 6 9 6 3 5 5 5 6 6 3 2 5 2 2 2 1 6 3 3 3 2 2 2 2 2 3 4 2 1 8 16 13 7 9 16 18 13 5 3 3 9 11 10 9 8 8 9 11 12 14 14 15 16
5 7 4 2 3 4 1 2 1 3 4 5 3 3 2 2 6 4 3 3 3 5 5 7 6 5 3 4 11 8 3 11 13 8 6 7 12 16 17 10 7 8 6 7 9 11 14 16 17 18 19 19 17 17
6 4 7 5 3 2 4 2 5 6 4 3 4 4 6 8 5 3 4 4 6 7 8 6 5 7 8 7 3 6 10 10 12 8 7 9 11 12 13 14 15 13 12 12 11 10 11 14 16 18 19 20 21 18
4 3 4 4 1 3 6 8 6 4 4 5 6 5 5 4 3 3 3 6 6 4 7 9 8 8 9 11 11 10 9 11 9 4 5 4 2 6 7 8 8 6 9 12 13 13 15 17 19 20 20 21 21 19
3 4 3 3 6 7 6 7 4 3 2 3 2 3 3 3 8 13 14 14 11 11 18 16 12 14 12 12 8 12 14 15 16 13 4 4 4 3 5 7 12 14 15 16 16 15 15 15 16 17 18 18 17 18
5 4 2 4 6 5 3 1 3 1 1 1 1 3 5 4 9 20 26 30 29 24 15 11 14 15 15 13 11 3 5 10 15 17 16 16 15 12 11 11 12 13 13 13 14 16 17 16 17 18 19 19 20 18
3 8 6 5 5 2 1 3 2 3 2 1 3 0 3 2 5 4 10 14 12 8 15 15 12 12 18 19 13 11 10 6 4 5 6 8 9 10 10 12 15 16 15 15 17 18 17 16 17 17 17 18 17 17
2 2 1 1 2 3 2 3 2 4 1 3 4 4 4 4 7 3 4 10 10 6 7 8 9 7 7 8 10 9 8 6 6 6 7 9 12 13 15 15 18 21 17 15 15 15 14 14 15 16 16 17 18 17

GFSWCAN_925_spd_039.txt.gz
Wind_Speed
8 7 6 6 5 6 7 7 8 9 10 11 14 12 12 12 11 3 3 4 2 2 9 7 5 6 6 5 4 5 3 4 1 5 3 4 6 7 5 5 7 10 6 6 7 5 7 8 5 4 5 6 6 5
8 6 7 7 6 7 7 8 8 8 11 12 12 12 11 14 8 9 4 2 3 4 6 15 17 18 17 12 5 3 3 4 5 4 5 4 6 4 8 4 10 6 6 4 6 4 4 5 3 6 2 2 2 4
9 8 8 8 8 11 10 10 9 8 8 11 12 11 14 9 10 9 5 6 4 3 7 4 1 2 7 15 16 4 2 3 3 3 3 3 6 6 7 9 8 8 8 3 3 7 10 5 6 2 0 2 4 3
9 8 8 7 9 12 11 12 12 7 11 12 12 11 12 13 13 11 4 4 3 3 4 1 1 2 2 7 12 20 16 3 1 2 2 4 4 5 8 5 9 4 11 10 8 9 1 6 8 7 6 4 2 2
8 7 6 7 10 11 10 11 6 9 10 13 11 14 14 14 12 12 7 6 7 3 3 6 21 5 4 10 12 13 14 10 6 3 4 3 5 2 3 3 8 7 8 7 5 6 9 2 11 6 4 3 0 4
9 8 5 6 10 8 3 5 4 7 11 12 14 15 15 13 10 3 1 2 2 4 2 3 5 3 2 3 7 9 10 6 3 3 5 4 5 6 4 10 13 11 11 10 6 3 3 7 4 1 2 1 4 7
8 7 6 8 9 6 4 4 5 8 12 13 15 17 18 13 4 2 2 1 3 1 1 4 3 1 1 1 2 3 5 3 5 4 6 9 5 3 5 9 5 9 9 7 4 5 4 3 3 1 3 6 9 10
10 8 8 10 8 4 2 5 5 9 14 15 17 17 9 3 1 1 1 2 4 1 2 3 4 3 8 3 2 3 3 4 4 4 5 9 4 0 4 11 5 6 7 7 6 3 4 2 2 3 5 6 8 9
8 6 7 7 5 2 1 5 8 12 14 19 16 6 2 1 1 2 4 5 11 2 2 2 2 3 2 2 1 4 3 3 3 5 5 6 5 6 9 5 6 8 7 6 5 2 1 2 3 5 5 7 8 9
9 8 9 8 5 3 1 5 9 13 17 14 4 2 2 1 6 8 4 1 1 2 2 3 2 3 2 3 5 3 4 3 3 7 4 4 3 10 1 5 3 6 6 6 3 2 1 0 2 5 7 8 8 9
10 11 10 8 6 3 1 4 8 13 10 6 4 2 5 7 2 2 1 2 2 2 3 3 3 4 3 4 3 5 3 3 3 4 4 4 4 4 5 4 4 4 5 4 3 3 2 2 5 6 7 7 9 10
11 13 11 9 6 1 3 4 7 9 7 7 8 6 4 2 1 2 2 1 2 3 2 4 6 6 3 3 4 4 3 3 2 4 2 2 2 3 4 4 3 3 3 4 2 1 3 2 4 5 6 6 9 11
15 13 10 9 6 3 1 3 6 10 9 1 2 2 2 0 2 3 5 1 4 5 3 5 7 4 3 2 3 2 3 1 2 2 2 2 3 3 3 3 3 3 3 3 2 1 2 3 5 6 7 7 8 8
18 13 10 5 7 5 2 3 6 8 1 1 2 3 1 1 2 3 2 3 2 3 6 6 5 3 2 3 2 3 1 2 2 2 1 2 4 5 4 3 3 4 4 4 3 3 3 4 5 5 5 7 8 8
14 11 10 8 8 6 3 3 5 4 0 1 1 2 2 2 2 2 1 3 3 4 6 5 4 3 3 4 2 2 2 2 1 1 2 0 5 5 4 4 4 4 4 3 3 3 4 5 5 5 7 8 7 8
14 10 8 10 8 6 5 3 3 1 2 1 2 2 2 2 2 1 2 3 2 4 4 2 3 4 4 3 3 2 2 1 2 2 2 2 5 4 4 4 3 3 2 2 3 3 4 5 7 7 7 8 9 9
11 4 8 9 10 7 3 1 1 2 1 1 2 3 3 4 4 2 2 3 4 4 3 3 3 3 5 3 2 2 3 3 3 4 2 2 5 4 4 3 3 2 1 1 1 2 3 4 4 5 6 10 10 9
5 11 9 11 9 5 1 1 2 1 4 3 3 2 3 3 4 3 2 2 2 2 2 2 3 3 4 4 2 1 2 1 1 3 2 1 3 4 5 4 4 3 1 0 0 1 2 3 4 4 7 9 8 8
11 14 13 12 8 3 2 1 1 3 2 1 3 3 3 4 4 7 4 3 3 2 4 3 4 4 4 3 3 1 1 2 1 2 2 2 4 5 5 4 3 3 2 2 2 2 2 3 4 5 6 7 7 8
13 14 13 13 7 2 2 1 1 1 2 1 2 3 3 3 3 3 3 2 2 2 3 4 5 3 3 4 1 2 3 4 3 2 3 4 7 7 7 7 6 5 4 3 3 3 4 4 2 4 5 6 7 7
13 9 10 8 2 1 1 2 2 2 3 3 2 3 3 2 2 1 1 1 3 3 4 6 7 7 7 9 11 8 6 4 4 4 3 1 6 8 7 8 7 5 5 4 4 3 3 4 3 4 5 5 5 6
5 12 3 4 1 1 0 2 1 1 1 2 2 2 4 3 2 1 2 3 4 4 4 3 4 5 7 9 8 7 9 10 10 8 6 4 2 4 5 10 9 6 6 6 5 4 3 3 5 5 6 6 6 7
12 6 3 2 2 3 1 0 2 1 3 1 1 3 3 2 1 0 2 3 4 5 6 5 8 10 9 17 14 14 12 10 5 7 8 8 7 7 6 9 11 8 5 8 8 5 4 4 4 5 5 6 7 8
7 5 3 3 5 2 2 2 0 1 2 2 2 4 3 2 2 2 3 3 3 1 3 6 7 6 5 5 4 5 6 5 8 7 8 7 4 6 8 8 9 13 12 6 7 6 6 5 4 5 6 6 7 7
4 4 4 5 3 4 4 3 3 3 4 4 3 4 2 1 2 3 4 3 2 2 2 2 3 4 3 4 3 6 7 5 6 4 7 11 6 3 5 8 9 12 12 11 11 11 9 7 7 7 7 7 8 10
6 7 8 6 4 5 6 4 6 6 3 4 6 1 1 2 3 5 3 3 3 2 1 2 3 3 3 4 3 3 4 8 4 5 5 10 14 9 4 4 3 8 15 19 17 13 12 11 11 10 10 10 10 11
6 8 4 2 2 3 2 1 1 2 5 6 3 4 3 4 6 4 2 3 3 6 4 5 7 4 5 8 12 13 10 9 8 8 9 9 11 16 16 8 6 12 11 11 13 14 13 11 10 9 10 10 10 11
5 5 7 6 3 2 3 3 4 5 4 4 4 5 6 7 4 2 3 5 8 9 10 12 12 13 15 17 17 17 15 13 12 11 14 17 17 15 15 16 17 15 12 10 10 11 11 12 12 11 12 13 13 13
4 4 5 4 3 4 6 6 6 5 4 5 5 5 5 4 2 3 10 16 13 11 11 12 17 19 20 22 22 22 20 16 7 6 9 7 2 10 11 15 15 14 14 13 12 10 10 11 12 14 15 16 16 15
4 5 4 5 5 7 7 7 4 2 3 3 2 3 4 4 17 27 27 23 17 19 26 27 25 18 17 16 16 17 22 24 26 18 9 8 6 8 7 8 10 10 10 10 10 12 13 14 15 15 14 14 16 15
5 6 3 5 6 8 7 1 1 2 1 3 3 4 12 9 18 23 30 32 30 29 24 23 24 23 19 18 14 8 9 14 20 25 26 21 16 13 10 9 9 10 11 11 11 11 12 12 13 14 15 16 17 14
5 8 5 5 5 1 0 2 1 3 3 3 4 4 3 3 5 5 19 25 20 18 26 25 19 19 18 20 17 17 14 14 13 9 10 15 15 13 12 10 9 10 10 11 12 12 13 14 15 15 15 17 17 16
1 1 0 3 3 4 3 3 3 3 3 3 5 4 4 3 6 4 9 14 17 13 11 11 13 12 13 11 10 8 8 7 6 5 4 5 4 5 5 6 8 10 12 12 12 13 12 12 15 16 16 16 16 15

GFSWCAN_925_spd_042.txt.gz
Wind_Speed
15 12 8 5 5 2 2 6 9 9 10 11 15 14 10 12 13 10 8 5 5 3 6 2 3 4 4 3 2 5 3 2 2 2 2 3 3 5 3 3 6 7 5 4 4 4 7 4 4 1 4 5 5 6
14 12 8 7 6 4 4 6 10 10 9 9 13 11 13 11 9 9 3 2 9 4 5 20 16 16 11 7 3 3 1 2 3 3 3 3 3 2 6 3 6 4 6 4 6 5 4 5 3 4 4 5 4 6
15 11 8 7 6 4 6 7 12 13 8 9 11 11 10 12 12 9 9 3 2 3 5 2 1 1 1 10 13 3 1 4 3 1 3 3 4 2 3 5 5 4 2 3 2 4 4 7 5 5 2 4 5 5
15 10 8 7 5 4 6 9 12 12 8 9 12 9 13 12 15 10 7 7 2 3 2 1 1 3 7 4 8 12 6 3 4 1 1 3 3 5 3 4 3 5 7 5 5 6 1 4 7 8 6 6 5 4
14 11 8 5 3 3 6 9 7 6 7 11 9 10 13 12 13 11 6 3 3 0 3 5 16 2 3 5 7 8 9 4 2 2 3 3 3 4 4 4 4 4 6 4 4 6 6 3 6 8 7 5 5 2
14 10 6 4 2 2 6 7 6 4 8 11 10 12 12 13 9 2 1 7 4 1 2 3 4 1 2 2 4 6 6 3 2 2 3 3 3 1 4 4 7 6 7 7 3 5 7 8 8 6 5 5 4 2
14 10 7 4 1 3 7 6 5 7 8 10 12 14 15 7 4 2 1 1 1 3 1 3 3 1 2 1 1 0 1 1 1 2 4 3 3 1 3 6 11 13 8 7 6 7 5 3 4 6 5 3 3 5
14 11 8 4 1 3 4 4 7 8 11 12 14 9 4 4 6 3 3 2 1 2 0 2 3 2 3 1 1 3 2 2 3 3 2 4 3 5 6 12 10 11 7 8 8 7 5 7 5 5 3 2 4 4
14 10 7 3 2 1 1 4 7 9 13 15 6 5 4 4 3 2 5 5 5 2 2 1 2 3 1 2 1 2 3 3 3 4 4 3 5 6 10 14 10 16 4 7 7 5 4 6 5 3 3 4 3 4
15 12 9 6 4 3 1 4 7 11 11 5 3 0 2 2 8 4 2 0 1 1 0 2 2 3 1 2 2 2 3 3 3 5 3 5 5 13 5 5 6 5 7 6 5 2 2 1 3 4 4 4 4 5
15 13 10 8 7 4 1 4 9 14 6 3 2 2 3 7 2 1 1 1 1 2 2 2 3 4 2 4 3 4 2 2 3 3 3 2 2 3 6 6 5 4 5 4 5 6 5 5 4 2 3 3 6 8
15 13 14 12 10 5 2 2 6 6 4 4 1 2 3 1 1 3 2 0 1 4 2 3 4 4 3 2 3 4 3 3 4 4 3 2 2 3 4 4 6 3 2 3 6 6 5 5 5 4 3 4 7 8
16 17 14 11 9 6 2 1 5 7 3 2 1 2 2 1 4 3 5 2 3 2 2 4 7 2 3 3 3 3 3 3 3 2 2 1 0 1 3 3 3 3 3 4 6 6 7 7 7 5 4 6 8 8
18 16 12 10 9 6 4 2 5 4 1 2 3 4 2 1 2 2 2 1 2 2 5 6 4 2 2 3 2 3 1 2 2 2 3 3 1 3 3 2 3 3 5 6 5 5 5 6 5 7 8 10 11 9
19 15 11 8 9 7 6 4 6 2 1 2 2 1 2 2 2 2 1 1 2 2 3 5 3 3 3 4 3 3 2 2 1 2 2 3 1 1 2 2 4 4 4 4 4 4 6 6 7 6 7 7 8 9
19 12 11 10 11 9 5 3 4 1 2 2 2 2 1 1 2 1 2 2 2 3 2 1 3 3 3 4 3 3 3 2 3 3 3 1 0 0 2 4 4 3 4 4 5 5 6 8 7 6 6 8 10 9
16 4 11 14 12 8 3 3 1 3 2 2 2 2 1 1 3 1 0 0 2 2 2 2 4 3 4 3 3 2 3 3 3 3 3 4 2 3 2 3 4 3 4 5 3 5 6 6 6 6 5 11 12 10
4 12 14 14 13 7 2 1 2 1 1 2 1 2 2 2 2 3 2 2 1 0 2 2 1 3 4 4 4 2 2 2 1 2 3 3 1 2 1 2 3 3 4 3 2 1 2 5 5 4 7 10 10 10
12 16 14 14 10 4 3 1 2 1 2 1 2 1 1 3 3 3 1 1 2 0 1 2 4 4 4 3 3 3 2 1 3 4 3 4 6 6 5 2 3 2 2 3 2 1 2 3 3 4 6 7 8 8
12 14 13 12 6 2 2 1 1 1 1 1 1 2 2 2 2 2 2 0 3 2 4 5 6 4 4 3 2 2 3 3 3 4 4 3 7 8 10 9 9 10 7 6 5 5 4 4 4 3 5 6 6 8
16 11 11 8 2 2 1 1 1 1 2 1 0 1 3 1 2 2 2 1 3 4 4 5 6 6 8 9 12 13 9 7 5 5 4 3 5 11 9 12 10 9 7 7 6 6 5 5 4 4 4 5 5 6
6 13 5 3 2 2 1 2 1 1 1 2 1 1 3 2 2 2 2 3 4 4 4 3 2 1 4 5 8 14 18 17 17 14 16 13 3 1 4 11 12 7 12 12 10 8 6 5 5 4 5 6 6 8
12 6 3 3 2 2 1 1 2 1 1 1 1 3 3 2 2 2 3 3 4 5 5 3 5 6 9 20 17 18 14 12 6 9 11 12 15 13 11 11 16 12 7 15 14 12 10 6 5 5 5 5 6 8
7 3 3 2 5 2 2 1 1 0 0 2 2 4 4 3 1 1 4 3 3 2 3 4 5 3 5 6 2 5 12 9 11 15 14 12 4 9 12 12 12 16 17 9 14 13 11 9 6 6 6 7 7 8
5 3 3 4 3 3 3 3 2 3 4 4 2 4 3 1 2 3 4 3 3 3 3 5 3 3 3 3 4 9 9 7 9 5 11 10 12 6 6 9 11 12 13 16 15 15 14 11 10 10 8 8 9 10
5 7 6 6 3 5 5 4 6 7 3 2 6 2 0 1 1 7 3 3 3 3 3 4 4 2 3 9 3 3 7 10 8 6 11 7 9 11 4 3 3 10 16 18 19 18 17 15 13 12 12 11 10 11
5 7 3 1 2 3 2 1 1 2 3 5 3 3 3 3 6 5 3 2 3 6 11 11 13 10 7 13 16 18 15 13 13 14 16 16 15 13 16 11 8 14 9 11 14 17 18 16 15 14 14 12 12 12
5 4 8 6 2 1 4 3 5 6 4 3 2 5 5 7 5 3 4 3 9 10 13 14 16 19 23 26 28 25 23 20 18 17 19 23 25 24 22 20 21 21 18 15 13 13 13 13 14 14 14 14 13 12
4 2 4 5 1 3 6 7 5 5 3 4 4 5 5 4 4 3 13 18 15 13 13 16 25 27 30 30 29 28 26 23 8 6 11 9 6 14 16 17 20 18 16 13 11 10 11 12 13 12 11 13 13 12
4 3 3 5 6 7 6 7 4 2 3 4 3 4 5 6 20 30 29 25 17 17 28 30 29 20 20 18 18 20 22 22 24 19 9 10 10 13 12 13 13 14 14 14 13 12 11 9 12 12 13 13 13 13
4 5 3 5 5 5 4 1 1 2 2 3 3 5 12 7 16 27 29 31 30 31 25 22 24 24 21 18 14 8 10 17 21 25 26 24 21 14 10 8 8 9 9 9 9 9 9 9 11 13 13 14 14 13
3 6 4 3 4 3 1 2 2 3 3 3 4 3 3 2 5 4 19 25 23 16 25 25 19 21 22 25 24 23 21 19 19 15 13 14 18 16 14 11 10 10 9 9 8 9 11 11 12 14 15 16 17 17
3 2 2 2 4 4 2 2 2 4 2 3 4 5 6 5 7 5 10 14 16 17 14 12 12 11 12 13 14 14 15 13 11 8 6 4 4 4 5 5 4 4 6 8 10 10 10 12 13 14 14 15 16 16

GFSWCAN_925_spd_048.txt.gz
Wind_Speed
32 29 25 21 19 16 11 7 4 3 4 5 9 9 8 10 10 7 5 7 4 2 4 2 3 2 3 0 1 4 3 2 3 1 1 2 1 3 2 4 5 6 5 3 4 3 7 3 2 5 4 3 3 2
33 30 26 22 21 17 12 6 3 1 2 3 5 8 7 9 9 6 1 4 3 1 3 9 5 3 6 5 2 2 1 3 3 2 2 3 2 1 2 3 2 3 7 5 7 5 5 5 5 4 3 2 1 2
35 31 26 23 21 17 12 7 3 1 2 2 4 5 7 8 9 6 3 3 2 1 3 3 3 4 2 2 6 1 1 2 2 1 2 2 3 2 2 4 3 4 4 3 2 5 7 6 4 4 4 4 2 2
36 31 26 23 21 16 11 7 4 4 3 2 5 6 8 8 7 6 1 1 1 1 2 3 4 6 8 4 2 3 4 5 2 1 1 2 2 3 2 4 1 4 1 5 5 5 6 7 6 6 3 3 4 4
36 31 26 23 20 15 11 7 7 5 4 3 5 7 8 11 6 2 5 5 3 2 1 3 7 4 3 1 1 6 4 2 1 1 1 3 3 2 2 2 5 2 4 3 4 4 4 8 5 6 8 6 6 6
36 31 27 24 20 16 11 9 8 7 4 4 7 9 11 6 1 3 1 4 4 2 2 2 2 2 2 3 3 4 4 2 2 2 2 3 3 1 1 3 7 8 1 2 4 10 11 7 2 4 7 6 4 5
35 30 27 24 21 17 14 12 9 6 4 5 7 7 6 6 2 2 2 2 3 2 2 2 3 1 1 1 2 1 1 1 2 1 2 2 2 1 2 4 4 8 11 8 8 12 5 6 5 6 8 6 7 5
34 31 28 25 21 18 16 13 10 6 3 5 5 7 9 7 4 2 7 4 3 3 3 2 3 2 1 0 1 2 1 1 2 2 1 2 2 2 4 11 11 10 12 14 9 17 12 5 4 6 6 5 5 4
35 32 28 25 22 19 17 15 10 7 8 11 13 10 4 3 4 5 7 4 4 2 2 2 1 3 0 2 1 1 1 2 2 2 2 3 2 4 10 10 14 12 7 4 6 14 7 5 6 4 5 5 4 2
34 31 28 25 23 20 17 13 10 8 12 13 6 4 3 3 5 2 4 2 3 3 3 2 1 3 1 1 2 2 2 2 1 3 2 3 3 9 13 13 9 9 3 2 7 9 2 1 2 4 4 3 3 1
34 31 28 26 23 21 17 13 10 15 11 4 3 2 3 2 2 2 3 3 3 4 2 2 2 5 2 2 2 2 2 2 1 3 3 2 2 5 9 8 8 6 3 6 5 7 4 4 4 4 5 4 4 4
33 30 29 26 23 19 16 11 8 8 7 8 11 6 3 3 2 4 2 4 2 2 3 1 3 3 3 1 2 2 3 3 5 5 3 1 3 11 8 9 8 9 6 4 3 3 4 5 5 4 4 4 4 3
32 31 28 24 21 18 15 11 11 18 18 8 5 4 3 3 5 4 3 5 3 2 2 3 4 2 3 1 3 2 3 4 4 3 1 0 6 10 7 6 7 8 7 4 4 5 5 5 7 5 4 5 5 4
32 31 28 25 21 17 13 11 9 9 4 3 4 3 3 3 2 4 4 4 4 1 3 3 3 1 2 2 2 4 3 3 1 7 3 7 12 12 8 5 5 6 5 3 3 4 7 6 5 6 6 6 5 5
31 30 27 23 21 17 12 9 7 4 3 3 3 3 3 2 1 2 1 2 2 1 2 3 2 1 2 3 2 4 3 6 3 2 3 6 11 9 7 6 5 5 5 4 4 4 6 7 4 4 5 6 5 5
33 28 20 24 20 16 11 8 4 3 4 3 4 3 1 3 3 1 1 2 2 1 1 2 3 2 3 3 3 3 3 4 3 2 3 4 7 7 6 5 4 5 1 1 2 3 2 5 6 5 4 7 5 4
28 7 24 24 20 15 9 2 2 5 4 3 0 1 2 2 4 3 3 3 2 2 0 1 2 6 3 3 3 2 3 2 2 3 3 4 6 7 6 5 7 4 2 0 2 1 1 5 7 3 2 3 3 3
7 24 28 26 22 13 3 3 4 3 2 1 3 2 2 2 2 2 2 1 2 2 2 4 2 2 4 4 4 3 3 2 3 4 5 7 6 10 11 7 9 6 4 6 5 5 5 6 6 5 3 4 3 2
27 29 26 24 12 4 3 3 4 3 2 2 0 1 1 2 3 1 1 2 3 3 2 1 4 4 4 4 4 3 3 3 5 7 7 13 15 12 12 13 12 9 11 11 10 9 9 9 9 6 5 4 3 3
28 28 24 14 2 3 4 2 3 3 2 2 2 1 2 2 2 1 1 2 3 1 4 4 6 4 4 3 4 3 3 3 2 6 7 5 9 12 11 12 12 13 12 13 14 10 10 10 10 9 7 6 4 4
28 22 16 9 3 7 4 2 2 2 1 2 1 1 3 2 1 1 1 1 2 3 4 6 7 5 6 11 15 13 8 5 4 4 4 4 8 11 14 18 17 13 9 7 6 8 12 12 11 8 8 7 6 5
14 15 7 3 4 3 3 5 2 1 1 2 1 1 1 1 2 2 1 3 4 4 5 4 3 4 4 5 7 10 12 10 11 12 14 13 4 3 5 11 9 7 11 11 12 12 14 15 11 10 8 7 5 6
16 9 4 3 4 4 2 2 1 1 0 2 2 3 2 2 3 2 2 3 4 7 11 8 9 17 12 16 10 10 8 9 9 10 13 14 14 15 16 15 12 11 8 12 14 16 18 16 13 12 10 8 8 8
9 3 4 3 3 3 1 1 1 0 0 1 2 4 3 3 1 2 3 4 5 2 4 9 12 2 3 4 3 7 7 9 14 17 13 11 7 12 11 16 15 13 15 17 15 14 12 14 14 14 14 13 12 11
6 1 5 2 1 4 2 1 2 2 3 2 2 4 3 2 1 2 5 6 3 3 5 8 7 5 5 2 3 10 8 12 12 5 19 14 15 17 19 17 17 17 13 13 16 16 15 13 17 18 17 16 15 15
3 2 5 6 2 4 4 3 4 6 3 2 5 2 2 2 1 7 4 3 3 3 3 3 5 5 4 8 4 5 19 17 13 9 22 20 19 14 6 5 6 17 17 14 16 16 16 16 17 18 20 20 16 15
4 5 2 1 2 4 2 2 1 3 3 5 3 2 2 3 6 5 3 4 3 4 8 14 8 10 8 14 19 22 26 27 24 23 27 28 25 25 25 16 12 22 22 18 15 17 19 19 19 20 21 21 19 19
3 4 7 4 2 1 5 2 4 6 5 3 4 4 7 8 6 3 5 6 15 22 25 24 22 26 31 32 33 31 33 30 27 26 27 29 28 24 25 27 29 29 27 27 25 21 20 20 19 18 18 18 17 14
3 2 4 5 2 1 5 7 5 4 4 5 5 5 6 5 4 4 21 26 29 27 22 21 27 27 30 34 35 35 31 25 12 6 10 9 3 12 17 16 18 19 19 19 18 19 18 18 17 15 13 12 10 9
4 3 3 3 6 7 5 7 4 3 3 4 3 4 6 7 27 28 32 30 23 19 27 27 29 21 21 19 21 22 21 21 21 18 6 8 8 12 8 10 14 19 20 17 13 14 10 8 7 9 8 9 9 9
3 3 2 2 4 4 4 3 6 3 2 4 3 6 14 10 22 28 29 30 27 27 22 20 21 21 19 18 16 10 11 16 19 19 21 25 23 21 20 18 16 13 12 9 10 12 14 12 11 11 10 10 10 10
2 4 4 3 4 3 2 1 2 2 3 2 4 0 4 3 4 4 15 15 15 16 21 19 15 17 13 14 16 18 19 19 21 21 21 21 19 16 15 15 12 9 9 8 9 9 9 10 9 8 9 9 10 10
2 2 1 2 4 4 3 2 3 5 2 3 4 3 3 3 6 4 7 9 9 11 14 14 14 16 17 17 15 14 14 13 10 8 8 10 11 9 7 6 6 6 6 6 6 6 6 6 6 6 7 9 9 10

GFSWCAN_925_spd_051.txt.gz
Wind_Speed
44 38 34 30 28 23 19 15 11 9 7 5 6 6 9 11 10 8 4 9 6 1 4 3 3 1 1 0 0 3 1 2 3 1 0 1 2 2 1 3 5 6 5 3 3 3 7 3 2 4 5 4 4 5
42 40 36 32 29 25 20 15 12 9 8 5 4 5 7 8 9 6 3 6 5 3 2 4 3 2 2 4 1 3 3 1 3 2 2 2 2 2 0 2 2 2 5 4 7 5 4 4 5 4 3 3 3 3
43 41 37 34 31 26 21 17 13 10 8 5 3 5 5 5 7 7 3 5 3 2 3 3 2 4 3 3 4 1 1 1 2 0 1 2 3 2 2 3 2 3 0 3 1 5 8 8 5 5 3 4 2 0
45 42 39 35 31 26 22 17 13 12 11 7 5 5 5 6 7 6 5 5 3 4 3 3 4 2 4 2 2 0 2 4 3 2 1 0 2 4 2 3 2 3 3 3 6 7 7 8 6 6 6 4 3 3
46 43 39 35 31 26 22 17 15 15 12 9 7 5 5 6 6 10 11 8 5 2 2 2 6 1 1 1 1 2 2 1 1 1 1 2 2 2 1 2 4 3 5 3 5 5 4 8 7 9 7 6 6 6
48 44 39 35 31 27 22 19 18 15 12 9 7 6 9 10 9 6 3 8 8 4 3 1 3 2 1 2 0 3 3 1 1 1 1 2 2 0 1 3 6 5 4 4 5 10 10 18 12 6 6 6 5 6
49 44 39 35 32 27 23 21 19 16 12 9 12 16 16 13 10 8 3 4 10 4 2 3 3 3 2 1 1 2 3 1 1 0 1 1 2 1 2 3 5 6 9 10 8 8 9 4 7 15 7 4 9 7
49 44 39 36 32 28 24 22 19 15 12 16 20 21 17 12 12 7 11 6 3 3 4 2 3 3 3 2 1 1 2 2 1 1 1 2 2 1 3 7 10 10 11 10 11 5 6 10 9 7 2 2 4 5
48 43 40 36 33 29 26 23 18 16 19 23 22 17 9 5 4 3 4 5 6 4 2 2 2 3 3 2 0 1 1 2 2 1 2 2 1 3 5 12 15 16 11 13 12 5 9 10 8 3 4 4 4 3
47 44 40 36 32 29 27 23 19 22 25 23 8 5 3 3 4 3 2 1 2 3 3 2 1 3 3 3 2 1 1 1 2 3 3 2 2 6 8 9 11 11 14 6 6 10 7 5 6 2 4 4 3 3
46 42 39 35 32 30 27 24 24 27 19 4 4 2 6 6 2 3 2 3 3 4 3 2 1 3 3 2 3 2 2 2 2 3 3 2 1 7 13 12 10 11 10 11 7 6 9 8 7 1 4 1 2 4
44 41 37 34 32 29 25 24 29 13 9 8 15 11 5 3 3 5 1 3 3 2 3 2 3 2 3 2 3 1 3 1 4 4 2 1 1 10 11 12 10 9 11 8 7 6 8 10 8 2 3 4 3 4
43 39 36 33 30 25 21 21 22 16 26 9 5 4 3 3 7 5 1 4 3 2 2 3 3 2 3 2 3 2 3 3 3 1 2 3 2 6 9 8 9 10 12 10 8 9 8 9 10 8 5 5 4 5
41 37 35 32 28 23 19 21 30 15 4 3 4 4 3 3 1 4 4 4 3 2 0 2 1 1 2 2 2 4 3 3 2 1 4 2 2 7 7 5 6 8 9 8 6 7 7 9 9 8 9 8 7 6
40 38 34 30 27 22 20 19 13 5 4 3 3 2 2 3 1 1 1 0 2 2 2 2 1 2 1 3 2 4 3 3 2 3 2 3 3 5 8 6 4 4 4 5 7 6 6 7 9 9 8 8 6 5
42 35 24 29 25 21 19 15 5 3 5 3 4 4 1 3 2 2 2 2 2 2 2 2 2 1 2 1 3 5 3 5 4 3 3 4 5 7 7 6 6 6 6 5 6 6 5 3 5 8 9 6 5 4
32 9 33 29 24 20 13 4 3 5 4 4 0 1 3 2 3 3 3 3 4 2 2 3 2 7 1 2 4 4 4 3 2 3 3 6 7 11 10 9 9 8 6 7 7 8 7 4 5 6 7 6 6 5
18 33 35 30 24 15 4 5 4 4 4 1 3 2 2 2 3 2 2 2 2 2 3 3 2 3 5 5 4 4 3 2 3 4 6 9 9 12 14 11 14 9 9 10 10 8 7 7 7 8 10 8 7 5
39 38 32 26 13 5 4 4 4 3 1 1 0 1 2 1 1 3 2 4 4 5 4 2 3 3 4 4 4 3 3 2 3 4 6 13 15 14 15 18 16 10 10 12 11 10 12 11 12 11 9 7 7 5
38 33 27 15 4 4 4 3 2 3 3 2 2 2 1 1 1 1 0 2 3 2 1 4 5 4 4 4 3 3 3 2 2 4 6 5 9 13 15 16 14 17 14 13 11 10 11 12 13 12 11 9 7 7
32 26 18 6 5 8 3 2 2 2 2 2 1 1 0 2 2 1 1 1 2 3 4 5 5 8 10 14 17 15 13 8 5 5 4 4 12 15 16 20 17 14 8 8 6 7 10 11 14 11 10 11 10 9
18 16 8 5 5 4 4 7 3 1 2 1 2 1 1 0 1 2 2 1 4 4 4 4 4 6 4 6 11 10 13 13 13 14 14 13 5 4 9 15 15 9 11 12 13 11 12 15 13 12 13 12 9 9
17 7 5 4 5 4 0 2 2 2 2 1 2 2 2 0 3 3 3 3 4 6 7 4 12 18 14 19 18 23 19 15 10 13 13 12 15 18 18 19 14 14 10 14 14 15 15 13 11 14 13 12 10 10
7 5 4 3 4 3 2 3 2 2 2 1 1 3 3 3 1 1 3 4 3 2 4 8 11 5 6 8 3 10 18 15 16 18 15 13 10 15 17 22 21 17 18 21 19 17 16 15 11 13 14 14 13 12
6 4 5 4 2 4 3 3 2 2 3 2 3 4 2 1 1 3 4 4 2 2 3 7 5 3 4 7 8 16 19 17 14 6 19 12 16 16 20 23 25 27 19 16 20 17 17 15 13 15 17 17 16 16
5 2 4 5 1 4 4 4 4 5 3 2 5 1 2 2 1 6 4 3 3 4 3 2 2 1 2 10 7 7 20 19 19 11 22 20 16 15 8 6 7 23 20 13 13 14 16 14 14 15 18 19 17 16
4 3 2 2 3 4 3 3 2 2 3 5 3 2 3 2 6 5 3 4 3 9 13 13 12 10 8 16 21 24 28 30 27 27 28 26 25 26 24 17 14 23 23 21 19 19 20 20 17 17 19 20 20 19
3 3 6 4 3 1 5 2 5 6 4 3 4 4 6 8 5 3 5 5 13 24 29 32 32 31 29 29 30 31 32 33 32 27 24 27 30 31 26 25 24 23 22 21 21 20 20 21 22 21 18 19 18 14
2 2 4 3 2 1 5 6 6 4 3 5 5 4 5 5 4 5 20 26 34 28 23 21 31 28 30 32 32 32 32 28 16 15 15 7 4 20 21 15 14 13 13 12 13 14 16 16 16 18 16 14 13 11
2 2 4 3 6 6 4 6 4 3 2 4 2 3 5 7 26 29 29 30 25 20 24 24 26 22 19 18 19 21 21 21 22 19 9 7 9 18 10 11 12 14 18 19 18 15 9 10 9 9 8 8 8 7
3 3 3 2 4 4 3 3 4 3 1 3 2 5 11 6 20 32 23 27 27 26 21 17 17 18 17 17 13 10 11 15 17 21 25 25 23 22 22 21 18 15 13 12 11 8 7 10 10 10 8 7 6 6
2 3 4 3 4 3 4 2 2 2 3 2 4 1 4 3 4 4 7 13 14 11 8 12 15 15 18 18 18 18 20 23 24 23 23 22 22 21 18 16 13 12 10 8 7 6 7 8 8 7 7 7 6 7
3 2 2 2 4 4 2 1 3 5 3 3 4 3 3 3 6 4 3 8 10 10 13 18 19 18 16 15 16 16 14 15 14 13 11 11 9 9 8 8 5 4 3 3 4 4 4 4 3 3 4 5 7 8

GFSWCAN_925_spd_054.txt.gz
Wind_Speed
49 47 44 38 35 30 25 22 19 16 12 9 7 7 8 8 10 8 10 12 5 3 1 3 3 2 2 2 1 4 2 2 3 2 2 1 1 0 1 2 4 5 4 4 2 3 6 3 1 3 4 4 4 5
47 49 45 41 37 32 27 24 20 16 13 9 7 7 7 7 8 7 6 8 9 6 2 2 1 2 2 2 2 1 3 1 2 1 2 1 1 1 1 2 2 2 4 2 6 5 3 2 4 4 3 4 5 4
54 51 48 41 38 33 29 25 20 16 14 10 9 8 6 5 8 12 12 8 5 3 3 3 2 5 4 4 3 2 3 3 2 1 2 1 1 2 1 2 3 2 1 2 3 4 4 6 6 4 6 8 9 6
59 55 46 44 40 36 30 25 20 17 15 12 11 9 9 6 10 14 12 9 7 6 3 3 4 3 5 2 4 3 1 4 3 2 1 2 2 3 1 3 2 3 5 3 6 5 9 3 5 8 18 14 10 8
59 52 49 46 41 36 30 25 21 20 17 14 13 11 9 12 19 22 21 15 9 4 3 1 4 4 4 4 5 4 5 3 2 2 2 0 1 2 1 1 3 1 2 2 4 1 3 8 16 13 13 11 13 8
59 55 51 49 42 37 30 26 23 23 18 15 13 11 14 20 21 5 3 9 9 4 3 2 3 3 4 4 5 5 2 1 1 1 1 2 2 1 1 2 3 3 5 2 5 9 12 14 15 14 6 12 12 8
63 56 53 47 42 36 31 27 27 23 19 15 15 17 17 15 7 7 4 3 5 5 3 3 3 3 4 3 3 3 3 2 1 0 0 1 2 3 0 2 3 7 11 14 14 8 8 4 9 11 16 18 17 5
62 60 51 47 43 36 32 30 27 23 19 19 22 22 23 21 15 13 14 7 4 7 5 3 3 3 6 3 2 1 2 2 2 2 2 1 1 2 2 7 11 14 16 14 9 7 10 13 13 14 18 11 6 4
66 57 52 48 42 36 33 31 28 24 24 25 24 22 6 3 4 6 8 9 11 6 3 3 1 3 4 1 1 1 1 2 1 1 1 1 1 1 7 10 13 14 11 16 16 13 14 13 15 14 13 5 5 5
59 58 53 49 41 37 34 31 27 27 30 26 12 3 2 4 12 8 3 3 4 3 3 2 1 3 2 2 2 0 1 1 1 1 2 1 2 6 7 8 10 12 11 13 13 15 13 12 10 10 7 1 2 2
58 54 52 46 40 37 34 31 30 33 27 6 3 2 8 9 3 4 3 3 2 4 1 1 3 2 2 1 2 1 1 2 2 1 1 0 3 1 6 9 10 9 12 11 11 10 8 9 9 7 3 3 1 3
56 52 48 44 40 37 34 33 39 21 9 10 14 11 5 3 3 6 1 3 3 2 2 1 2 2 3 1 1 0 1 1 2 3 2 2 2 1 6 9 12 12 14 12 12 9 10 10 10 7 6 7 6 3
53 50 46 41 38 35 32 37 35 8 24 10 4 4 3 3 7 5 2 3 1 2 2 2 2 1 2 1 2 1 1 1 4 2 3 3 2 4 5 6 9 12 14 15 12 10 9 8 10 9 5 7 6 6
52 48 43 39 35 32 31 31 21 23 2 3 4 4 2 1 1 4 5 4 3 2 2 1 1 1 1 1 2 2 1 2 0 1 5 2 4 4 5 5 6 9 8 8 10 11 8 6 6 8 10 10 10 8
49 45 40 35 32 29 31 26 25 6 2 3 3 2 1 3 3 1 1 2 1 2 2 2 2 0 2 2 2 1 2 3 5 4 3 3 4 5 6 8 8 8 8 7 9 9 9 7 5 7 9 9 8 8
49 41 29 33 29 29 33 28 10 3 4 3 4 5 1 4 2 2 2 2 2 2 2 2 2 3 3 1 3 5 2 6 4 3 3 3 5 6 6 7 9 12 12 11 9 10 13 10 7 7 9 7 7 7
37 16 39 34 34 30 24 7 4 4 4 3 2 2 3 3 4 3 4 3 7 3 2 3 2 6 1 2 4 4 4 3 3 3 3 4 5 7 8 10 12 12 13 12 9 9 13 12 7 7 5 10 11 8
21 44 42 38 36 23 5 4 4 3 4 1 3 2 2 3 4 3 2 2 3 2 3 3 3 2 4 4 4 3 3 3 5 5 4 6 6 10 10 9 13 15 14 12 13 13 13 12 8 8 11 14 11 10
48 47 39 34 18 6 3 3 4 4 2 2 2 1 2 2 2 3 4 5 3 3 4 2 1 3 4 4 4 3 3 3 4 4 4 13 12 10 11 15 16 15 14 15 13 11 12 16 16 15 14 13 11 10
45 40 32 17 5 5 4 3 2 4 3 2 2 2 2 2 1 2 2 1 2 2 1 3 5 4 4 4 4 4 3 3 2 7 10 6 7 9 12 12 13 16 16 16 14 12 11 13 18 19 16 14 13 13
33 27 19 6 5 9 4 2 3 2 3 3 0 1 1 2 2 2 1 1 2 3 3 4 4 6 10 12 15 12 12 9 6 5 6 6 9 14 18 19 15 16 8 10 8 11 11 12 16 17 14 14 16 14
21 22 6 4 6 5 4 7 3 2 3 2 2 2 2 1 1 1 1 2 3 4 4 3 3 3 4 6 11 14 18 17 15 15 15 14 4 3 7 15 16 10 14 13 13 12 13 16 16 16 15 16 12 13
21 8 5 4 5 5 2 4 4 4 4 1 2 3 2 2 2 3 3 3 4 5 8 6 8 12 11 20 21 22 21 21 13 15 14 13 14 15 19 19 16 14 12 19 18 17 17 16 13 13 16 15 14 14
9 5 4 3 4 3 2 3 2 3 2 3 2 2 2 1 0 1 3 4 3 2 3 6 9 4 6 8 3 7 17 14 19 20 18 13 7 12 15 19 22 23 20 22 24 23 20 19 14 13 12 15 17 17
6 5 5 6 3 4 4 2 2 2 2 1 2 2 2 1 1 2 4 4 2 3 3 6 5 4 4 3 6 12 18 12 13 7 21 16 14 16 19 23 21 23 21 16 20 19 18 16 15 15 15 15 18 20
6 3 3 3 1 4 4 4 4 4 3 2 4 0 1 2 0 6 4 3 3 3 4 4 5 3 4 12 5 6 19 21 12 12 22 23 21 17 7 6 7 20 27 17 14 17 17 17 18 18 18 16 16 17
5 2 2 2 3 5 4 3 3 3 3 5 3 3 3 1 6 4 3 4 3 8 11 17 23 16 13 22 25 28 29 25 25 24 26 24 22 22 22 16 12 24 27 23 20 19 20 21 21 21 20 19 18 17
3 2 6 3 3 2 5 2 4 6 4 3 4 3 7 8 5 3 5 5 12 22 24 27 28 30 31 32 31 28 28 27 26 28 28 29 29 29 29 30 33 29 27 24 20 16 17 18 20 21 20 22 22 17
3 2 4 4 2 1 4 5 5 3 3 4 5 4 5 4 4 4 17 24 29 26 23 21 24 21 22 23 25 25 24 23 14 12 14 10 5 15 24 20 19 16 13 13 13 12 15 18 20 19 17 17 16 12
2 1 4 2 5 5 4 5 3 2 2 4 3 3 3 6 21 25 27 30 21 17 19 19 20 18 16 15 18 23 20 18 19 16 8 9 8 19 19 14 10 10 10 14 17 17 15 14 12 12 10 7 7 7
2 3 3 2 3 3 2 3 4 3 1 2 2 4 7 4 16 17 8 7 8 8 10 14 19 17 14 13 11 11 12 10 9 14 16 20 21 21 23 22 19 19 19 16 14 15 13 10 10 13 10 7 5 5
2 2 4 2 3 2 3 2 1 1 3 2 3 1 3 4 3 3 6 10 10 12 10 13 16 15 20 16 14 14 16 21 24 24 22 22 19 18 19 21 20 18 15 13 12 10 8 8 9 8 8 7 6 6
2 2 2 2 3 4 3 3 5 5 2 2 3 2 2 3 6 4 3 6 11 16 18 22 23 22 19 16 13 14 16 18 17 16 14 13 11 10 10 9 8 8 7 6 6 5 5 4 4 4 4 4 4 5

GFSWCAN_925_spd_057.txt.gz
Wind_Speed
59 58 54 47 46 41 37 31 27 22 19 16 12 10 9 8 5 3 8 8 5 3 2 4 3 3 2 3 2 4 1 2 3 2 2 1 2 1 2 1 3 5 5 3 2 2 4 2 2 3 4 6 7 7
61 59 54 53 46 41 37 34 29 24 20 16 13 11 10 8 6 3 6 11 12 7 4 6 8 6 4 3 3 2 1 1 1 1 2 1 1 1 2 1 3 1 3 3 6 5 2 3 1 3 4 3 6 9
62 61 58 52 48 42 38 35 30 26 20 17 14 11 9 6 6 7 13 11 11 4 4 4 3 6 5 3 1 2 0 2 1 1 1 1 1 1 1 1 2 1 1 2 2 2 5 4 3 2 4 6 13 8
63 61 60 55 50 46 41 36 31 26 21 17 15 13 10 10 11 14 9 8 7 6 4 1 3 3 4 4 3 2 2 2 1 1 2 2 1 3 1 1 1 2 5 4 5 5 12 0 12 12 17 12 9 11
64 58 58 56 52 47 41 36 31 26 21 18 16 16 12 15 17 19 19 11 6 3 4 3 1 4 4 4 5 5 4 3 2 3 2 1 1 2 1 2 1 3 3 3 4 6 7 11 12 17 18 15 6 11
62 61 57 54 53 47 42 36 30 27 22 20 18 15 17 22 19 2 3 6 6 4 4 2 1 2 5 7 8 5 4 2 2 2 0 1 0 2 2 1 2 3 2 4 5 12 16 18 17 16 12 14 16 13
63 62 56 55 51 48 42 36 31 27 23 21 17 17 21 20 2 2 3 7 7 5 3 3 2 2 3 3 3 3 4 2 2 1 2 1 0 2 1 2 4 6 11 11 11 8 9 5 12 17 14 19 23 21
65 65 60 57 53 46 41 36 31 27 24 20 21 21 18 14 11 6 8 7 6 8 5 3 2 3 4 2 1 0 2 2 3 1 0 1 0 1 2 5 6 10 12 9 9 10 13 16 16 15 22 19 15 13
64 62 59 56 54 47 41 36 32 29 26 27 25 28 10 1 2 7 11 12 10 4 4 3 3 3 4 1 1 1 1 2 1 1 1 1 1 1 4 7 10 11 9 12 14 13 12 11 13 15 14 13 13 11
67 62 58 58 52 47 42 38 35 33 33 31 19 4 2 3 15 9 2 3 4 4 4 3 1 1 3 2 2 1 1 1 1 1 1 2 3 4 5 5 5 8 10 11 12 11 14 15 13 16 15 10 9 7
66 62 59 57 52 47 43 39 39 40 34 10 4 2 8 11 2 3 3 4 2 4 2 2 3 1 1 2 1 0 0 1 2 3 3 3 3 4 5 6 6 5 7 7 8 12 11 10 10 11 11 9 9 9
65 60 60 57 51 48 44 41 45 29 14 10 13 11 6 2 2 6 1 3 3 3 1 3 2 2 1 1 0 1 1 0 3 2 2 2 3 5 5 8 7 7 8 8 9 8 11 12 9 9 8 8 11 11
61 58 57 55 51 47 43 45 35 18 19 14 3 4 3 3 7 5 3 3 1 2 2 1 1 1 1 1 0 1 2 3 4 2 4 4 2 3 5 5 7 11 10 10 9 9 9 10 9 7 8 11 14 10
60 57 54 52 49 45 45 42 25 25 4 2 4 4 3 2 1 3 4 5 3 4 4 2 1 2 1 2 1 1 3 1 2 2 4 3 4 3 5 5 6 7 7 8 8 10 8 7 7 6 6 11 12 11
57 54 51 47 45 44 44 34 25 6 3 3 3 3 2 3 2 2 2 3 2 4 3 3 2 2 1 1 2 1 2 4 5 4 3 3 3 5 6 6 7 8 7 6 13 10 10 8 7 8 5 6 8 9
58 51 44 43 41 43 39 25 11 2 4 3 4 5 2 3 2 2 1 2 2 3 3 3 2 3 2 1 2 5 3 4 4 3 3 4 5 6 6 7 8 12 12 13 14 15 13 10 8 7 8 6 5 7
44 22 48 42 44 36 32 10 3 4 4 4 2 2 3 3 4 3 3 3 8 3 2 3 3 6 1 2 3 3 4 3 3 3 3 7 6 7 7 11 12 13 14 14 15 13 13 14 10 5 3 1 6 9
38 53 49 47 43 30 8 3 4 3 5 1 3 2 2 3 4 3 3 3 3 2 3 4 4 2 4 5 3 3 4 3 4 5 6 8 9 14 14 10 13 15 16 18 18 18 15 14 11 9 7 4 7 9
52 53 48 46 29 8 4 3 3 4 2 2 2 1 2 3 3 4 3 5 4 5 5 2 3 3 3 4 4 4 3 3 3 4 4 13 18 17 16 12 15 14 16 18 18 14 14 17 16 13 13 7 4 10
52 49 44 24 5 5 5 3 2 4 3 2 2 3 2 3 2 2 3 2 2 2 2 2 5 4 4 4 4 3 3 3 2 5 8 6 10 12 14 15 13 15 18 17 19 15 15 12 14 13 11 13 11 11
40 33 24 7 6 10 4 1 4 2 3 3 1 2 2 2 3 1 1 1 3 3 3 4 4 4 3 8 12 13 11 8 5 4 7 9 9 11 17 19 13 11 9 11 9 15 15 14 16 15 12 10 12 12
26 23 6 5 5 5 4 7 4 3 3 2 2 2 3 2 1 1 2 2 3 4 4 3 3 2 3 5 8 9 15 15 17 18 20 18 7 3 7 12 10 4 13 16 15 13 18 22 19 13 12 11 6 10
21 7 6 5 6 5 2 1 4 4 4 1 2 3 2 2 2 4 2 3 4 5 6 6 7 10 11 13 11 14 12 13 10 12 15 14 17 21 20 22 17 9 10 19 19 21 22 20 17 13 12 10 8 7
7 6 5 4 4 4 2 4 3 3 3 3 3 2 1 1 2 1 3 3 3 2 2 5 8 3 4 4 2 10 16 13 11 16 20 15 9 16 21 24 19 15 16 20 21 22 21 17 12 10 10 11 11 10
7 5 5 5 2 4 4 3 3 4 3 1 3 0 1 1 2 1 3 3 2 2 3 4 5 3 4 4 8 19 22 15 12 7 22 21 20 19 19 27 26 21 18 14 20 19 20 16 13 10 11 10 12 13
7 3 3 3 2 4 3 4 4 4 3 3 2 0 1 2 1 5 3 3 3 3 3 3 3 3 4 12 8 10 21 19 18 12 25 23 24 18 10 8 8 18 21 16 18 19 20 17 14 13 15 15 12 13
5 2 2 2 4 5 4 4 3 3 3 5 3 3 3 1 5 4 3 5 3 8 10 12 13 12 10 18 21 23 25 27 26 24 29 31 30 29 25 15 10 21 25 25 22 22 20 18 18 16 16 16 15 13
3 2 6 2 4 2 5 3 4 5 4 3 4 4 7 8 5 3 5 5 11 18 21 21 21 19 20 21 23 27 29 27 25 25 25 25 21 21 23 26 27 24 25 25 24 21 18 15 15 15 16 18 19 15
3 2 4 4 3 2 3 5 5 3 4 4 5 4 4 4 4 4 12 21 24 22 21 19 20 19 20 18 18 17 18 18 13 10 12 9 5 11 11 11 14 16 12 9 8 10 10 10 13 16 17 15 15 13
2 1 4 3 4 4 3 3 3 1 1 3 2 3 3 4 10 17 18 20 14 11 10 11 12 14 16 17 15 19 16 8 7 5 6 9 10 23 28 28 23 18 13 9 12 14 11 11 11 9 9 8 8 7
1 2 4 3 2 2 1 2 3 0 3 1 2 3 3 4 10 5 2 2 3 6 12 17 23 22 16 16 15 10 8 6 16 21 19 22 24 25 26 26 24 21 17 14 14 12 10 9 7 6 6 6 5 4
3 3 4 3 1 2 2 3 1 2 3 3 2 2 4 3 3 3 1 2 6 14 10 13 16 17 22 20 15 13 12 17 23 23 24 25 32 24 19 16 16 15 11 8 8 8 6 5 3 3 3 3 4 4
2 2 3 3 3 3 2 3 4 4 2 2 3 2 2 2 5 3 2 1 9 15 20 20 21 22 18 14 11 8 12 19 20 18 18 18 19 15 14 11 9 6 4 2 2 2 2 2 2 1 1 1 1 2

GFSWCAN_925_spd_060.txt.gz
Wind_Speed
37 39 27 58 53 50 47 40 35 31 28 24 20 17 15 14 8 7 10 7 5 4 4 2 1 2 2 1 2 2 2 1 2 2 1 1 1 2 1 1 1 3 2 2 2 4 3 9 2 4 4 7 10 13
36 40 44 57 54 51 46 41 37 33 29 25 21 18 15 13 13 11 8 17 16 6 5 5 7 6 4 2 3 2 2 2 2 1 1 1 2 3 3 3 2 2 2 2 3 2 4 7 2 5 7 10 11 14
35 32 28 58 55 52 50 43 38 35 30 26 22 19 15 12 11 16 21 25 20 6 5 2 5 7 5 4 2 1 1 1 1 1 1 2 3 2 3 3 3 3 3 2 4 3 7 7 6 5 12 13 15 14
36 39 49 56 53 51 48 45 39 35 30 26 22 19 14 14 15 27 20 12 6 5 4 3 3 4 5 5 5 3 5 3 2 1 1 2 2 2 2 2 3 3 3 4 5 5 13 4 9 17 19 16 14 13
32 19 55 55 52 51 49 45 40 34 30 27 23 20 18 16 19 22 12 5 4 0 4 5 3 5 6 5 8 5 3 2 2 2 2 2 1 1 1 1 1 1 1 2 3 3 9 16 16 20 18 16 17 19
32 16 53 59 54 48 48 46 39 35 32 28 26 21 21 24 21 10 2 1 5 5 4 4 1 3 6 8 10 8 5 3 2 1 2 2 0 2 1 2 3 3 3 5 5 9 14 17 17 18 14 17 17 19
27 33 54 52 53 48 46 43 40 36 33 29 24 24 25 18 5 5 2 5 7 4 3 4 3 2 2 2 2 3 4 3 2 1 1 1 2 1 2 3 7 5 7 9 10 8 11 9 9 15 16 18 22 22
27 53 58 56 53 49 46 44 40 37 33 28 26 25 21 8 12 6 6 8 5 7 3 4 2 2 3 2 2 2 1 1 3 1 1 1 0 1 3 6 4 6 7 8 7 8 14 17 18 12 17 18 15 13
17 60 56 56 55 51 49 45 41 38 34 32 30 25 17 4 3 5 10 8 7 2 3 3 3 3 1 2 2 2 1 1 0 1 1 1 2 4 4 5 7 7 6 10 11 11 12 11 13 13 13 14 11 10
19 63 59 57 53 51 49 46 43 40 39 37 22 4 3 3 16 7 0 1 3 4 4 3 1 3 1 1 2 2 1 1 1 2 2 2 3 6 5 5 7 8 8 9 12 9 9 12 10 11 12 11 8 8
49 66 62 58 54 52 50 49 47 46 36 8 3 3 9 13 3 2 2 2 2 3 2 2 2 3 1 2 2 1 2 1 1 2 2 2 3 3 2 3 6 9 12 11 12 14 14 13 12 11 12 11 11 10
67 66 63 59 56 54 52 53 52 25 16 11 16 14 7 2 2 4 1 1 2 3 2 3 3 2 2 1 1 1 2 2 1 4 2 3 2 1 2 5 8 12 13 14 16 14 15 16 16 15 13 12 11 12
69 66 64 60 57 56 55 53 35 25 30 14 4 4 2 1 4 5 4 1 2 4 4 3 3 2 2 1 2 1 2 2 4 3 3 3 1 0 3 4 8 11 12 14 16 17 17 18 16 15 14 13 12 12
70 68 64 60 58 56 55 42 33 27 5 2 4 4 2 3 2 2 3 4 2 4 6 4 4 2 2 2 2 3 2 3 3 4 4 2 1 3 6 6 7 10 10 11 12 14 16 16 16 15 14 12 12 12
69 67 62 58 57 56 49 40 26 5 4 3 3 4 2 3 3 2 3 5 3 5 4 5 4 2 2 2 2 1 3 4 4 3 0 1 4 7 8 9 10 10 7 8 12 13 14 16 15 15 14 12 11 11
68 62 54 57 55 48 50 31 10 2 4 2 4 5 3 4 2 2 2 4 3 4 3 3 3 3 2 2 3 5 3 5 1 2 2 3 5 8 9 9 11 13 13 14 13 14 15 15 13 15 14 11 11 10
57 26 62 56 49 47 37 12 3 4 3 3 3 4 3 3 4 3 2 3 7 2 2 2 3 2 3 1 3 3 4 2 2 3 3 6 8 9 10 14 16 13 12 14 14 15 15 16 16 15 11 11 9 12
44 63 61 57 51 35 10 1 4 3 5 3 3 2 2 3 4 3 3 4 3 2 3 2 4 3 3 4 3 3 5 3 3 5 6 9 12 13 14 14 13 11 12 14 15 16 14 11 12 12 14 13 11 10
59 60 58 51 29 11 3 3 3 4 4 2 3 2 3 4 4 5 4 4 6 5 5 2 2 3 3 4 4 2 3 3 4 5 6 13 14 14 14 14 14 14 14 14 14 12 13 12 12 14 14 11 11 10
60 56 47 32 9 5 4 3 2 5 3 2 2 3 3 3 2 3 3 2 2 2 1 2 4 3 4 2 3 3 3 3 3 5 7 7 8 12 15 13 11 13 13 14 13 10 12 13 10 10 11 12 10 12
50 40 24 8 5 10 4 1 5 3 3 3 1 2 3 2 3 2 1 1 1 2 3 4 3 2 3 6 7 6 9 6 4 3 5 6 10 10 15 15 12 9 8 11 5 13 12 12 15 14 12 12 13 15
29 17 7 4 5 4 5 10 4 3 3 2 2 2 3 2 2 2 3 2 3 3 3 2 2 2 2 4 6 8 11 10 12 12 14 16 5 6 10 14 8 8 8 13 7 12 18 20 16 13 12 12 12 12
17 7 5 3 6 6 3 1 3 4 4 2 1 3 2 2 1 3 1 2 3 4 4 4 5 6 7 12 12 14 13 14 10 11 12 14 13 14 16 17 15 14 10 16 15 14 18 18 15 11 12 12 11 11
8 6 5 5 5 4 2 4 3 3 3 2 2 3 1 0 2 0 3 2 2 2 2 3 3 3 4 6 4 10 20 17 16 19 17 14 12 18 18 18 17 20 22 22 22 22 22 18 13 12 11 11 11 11
7 6 4 5 2 4 4 3 2 3 3 1 3 1 1 1 1 1 2 3 2 2 2 1 2 3 3 3 7 16 21 16 14 8 19 17 18 21 19 16 18 20 20 20 17 19 24 21 16 13 12 11 12 14
8 5 4 2 2 4 4 4 3 4 3 3 2 1 1 1 1 4 3 3 3 2 2 2 2 2 4 9 6 11 17 18 16 10 23 18 17 15 10 9 10 19 15 19 20 16 20 20 17 14 14 15 12 13
5 3 3 3 4 5 5 4 3 3 3 5 4 3 2 2 4 4 2 4 2 5 5 10 10 10 9 16 18 21 23 23 20 20 26 27 27 25 20 17 15 18 19 20 20 21 22 18 17 17 17 14 12 11
4 2 6 2 4 2 5 3 4 5 4 3 5 4 8 7 4 3 4 3 6 10 14 16 12 10 12 15 20 24 27 25 24 24 23 17 8 11 12 12 12 14 16 18 18 17 18 17 17 15 14 13 15 12
3 2 4 4 3 3 2 4 4 2 4 4 4 3 4 3 3 3 2 7 9 11 8 8 9 14 15 19 20 17 16 15 9 7 7 8 8 12 21 28 30 27 21 19 12 5 6 10 11 13 14 14 12 9
2 1 4 3 3 1 0 1 2 1 1 2 1 2 2 3 4 6 10 10 1 4 6 8 12 13 14 12 15 20 14 6 5 7 4 7 9 26 30 29 27 22 18 16 14 14 12 10 10 10 9 7 5 6
1 2 4 4 3 1 1 3 3 3 3 2 3 1 2 4 7 3 1 4 6 7 11 16 19 16 13 13 11 9 6 4 7 17 19 19 23 27 29 25 22 18 16 15 14 13 11 8 8 8 6 5 4 3
3 3 3 4 0 2 3 3 2 2 3 3 2 1 3 3 3 3 2 4 4 8 9 12 14 18 18 15 11 10 10 14 18 20 19 20 24 27 17 17 15 13 10 7 5 4 5 5 3 2 3 4 4 3
2 3 3 4 2 2 2 3 4 3 3 2 2 0 1 2 5 3 3 7 5 7 12 14 16 17 11 9 7 6 12 17 16 15 15 15 16 15 13 14 14 11 7 4 3 2 2 2 3 3 3 3 2 1

GFSWCAN_925_spd_063.txt.gz
Wind_Speed
32 32 35 37 34 43 45 45 43 38 32 29 26 23 19 17 17 13 8 8 3 4 6 4 2 2 2 2 4 3 3 3 1 4 1 1 2 2 3 4 1 4 3 3 3 3 6 5 3 4 3 2 8 9
30 34 32 39 51 29 48 47 43 38 32 30 27 23 23 15 15 16 7 10 13 6 6 12 11 8 7 6 2 1 2 3 2 1 1 1 1 1 2 2 1 2 4 3 3 2 5 3 4 4 3 8 10 13
30 30 29 34 9 42 46 44 43 39 35 30 27 24 21 18 15 14 18 19 17 6 7 5 5 9 9 7 5 2 2 2 3 2 2 2 2 3 3 2 2 3 1 3 4 5 2 7 2 3 10 12 13 13
29 29 30 34 28 22 43 40 41 39 35 30 26 23 21 18 23 30 18 10 7 6 4 4 2 5 7 6 5 5 7 4 4 0 1 1 2 2 1 4 4 1 2 1 6 8 9 2 5 11 13 14 14 14
26 27 28 31 34 41 48 44 42 38 34 30 26 23 23 26 30 26 16 9 6 2 4 5 5 5 5 5 6 5 5 3 2 2 1 1 1 2 1 1 4 1 1 2 3 7 9 11 11 18 18 16 14 17
22 24 32 37 37 51 48 43 41 40 35 31 27 25 26 29 29 6 3 3 7 9 5 4 2 3 5 6 9 8 5 3 2 2 2 2 1 3 2 2 2 5 1 3 4 10 13 17 15 16 13 17 16 17
19 22 27 10 51 50 47 44 43 41 36 31 29 27 26 29 11 5 4 6 9 7 3 5 3 2 0 1 2 3 5 2 2 1 1 1 1 2 2 3 7 7 4 7 8 9 9 3 9 17 17 20 21 24
19 23 26 15 49 49 48 45 44 41 37 33 32 28 23 21 12 7 10 11 7 6 3 4 3 3 2 2 2 1 2 1 2 1 2 2 2 2 4 6 4 2 3 7 6 7 13 17 17 14 17 16 15 14
23 24 26 28 58 52 47 46 44 42 38 36 32 26 14 6 3 6 11 10 8 5 3 2 4 3 3 2 2 1 1 1 1 1 1 1 3 5 5 4 0 4 4 7 8 9 11 12 14 14 13 13 14 14
22 26 27 59 58 52 49 47 45 43 42 39 22 4 4 3 19 12 3 1 2 2 2 3 1 3 2 3 2 2 1 1 2 2 2 3 4 5 3 4 3 4 5 6 7 7 9 10 12 14 14 12 11 12
23 20 60 57 59 54 52 50 49 47 39 10 3 3 8 13 2 1 2 1 1 2 2 3 1 4 0 2 2 1 2 1 2 3 2 2 3 2 7 5 3 4 7 8 10 12 12 13 11 12 13 14 16 17
30 18 61 59 59 56 54 54 53 22 17 11 16 14 7 2 2 3 1 1 2 3 3 3 3 3 3 2 2 2 2 2 2 3 2 3 1 5 6 5 7 9 10 10 12 13 15 18 17 16 16 16 17 17
36 44 63 59 59 57 56 54 24 26 34 12 4 4 3 1 3 6 6 2 4 5 5 4 4 3 3 2 2 2 4 2 3 2 3 1 5 4 3 3 5 8 10 12 12 15 16 18 19 19 18 18 18 18
24 67 64 59 59 58 55 36 32 35 6 2 4 5 3 4 4 1 2 4 4 6 8 6 4 2 2 2 2 3 2 3 2 3 3 3 2 3 5 6 6 8 10 10 9 12 14 15 17 19 19 19 17 18
67 66 61 60 59 56 45 36 31 5 4 3 3 4 3 3 3 3 5 5 4 6 6 5 4 2 2 2 2 1 3 3 4 2 2 0 4 5 6 7 9 9 8 7 12 11 14 16 17 19 19 18 17 16
69 64 55 62 56 49 42 35 6 4 4 3 4 5 5 5 2 3 5 5 3 5 3 3 3 3 2 1 3 4 3 5 1 1 1 4 5 6 7 7 10 14 15 13 12 12 15 16 17 20 22 20 18 17
65 25 66 59 53 45 35 9 4 5 3 2 3 4 2 5 3 4 4 4 8 3 2 2 3 2 3 2 2 3 3 1 2 2 3 5 7 9 9 12 12 13 13 13 13 15 16 18 18 16 12 17 17 17
32 68 64 58 50 36 8 6 4 4 4 2 3 3 2 3 5 5 4 6 3 2 2 2 4 3 3 3 2 2 4 2 3 3 4 6 9 12 12 12 13 13 13 13 14 17 17 15 13 12 15 16 18 17
64 64 61 53 37 12 4 3 3 4 3 2 3 1 3 4 5 6 6 5 5 4 5 2 2 2 2 3 2 2 2 3 3 4 5 10 9 9 12 13 14 14 14 14 13 12 13 14 10 17 18 16 14 15
65 60 50 41 20 6 4 3 3 3 3 3 1 3 4 3 2 4 5 3 2 1 2 2 3 2 2 1 2 2 1 2 3 4 4 4 5 7 10 12 12 15 16 16 15 13 12 9 12 15 16 16 16 16
55 44 29 21 7 11 4 3 3 2 4 3 1 3 4 2 3 2 2 3 1 1 2 3 2 1 2 2 3 4 5 5 5 5 5 4 7 9 12 12 12 13 12 13 11 11 12 7 9 19 17 15 15 14
32 30 10 6 5 4 4 6 4 3 3 2 3 2 3 2 2 2 3 1 2 2 2 1 1 2 1 2 2 5 8 8 10 12 16 13 6 6 10 14 14 13 14 15 16 14 15 18 18 15 16 16 15 13
29 7 7 5 5 6 3 1 3 4 4 3 2 4 2 2 2 2 2 2 2 2 1 1 3 5 5 8 9 13 11 12 10 13 13 12 15 17 18 17 16 15 14 17 16 16 17 16 17 16 17 16 14 12
10 6 4 4 5 4 3 3 3 3 3 2 2 4 2 1 1 0 2 2 1 0 1 2 3 2 3 5 3 7 11 8 10 11 13 14 12 15 16 19 19 18 18 21 20 19 18 18 18 15 15 13 14 11
8 8 3 5 2 5 5 3 2 2 3 2 3 2 2 1 2 2 2 2 1 1 2 3 3 3 3 4 6 10 11 12 10 6 18 16 18 19 18 17 17 18 17 17 16 15 17 17 15 13 14 12 13 14
7 5 4 2 2 4 2 4 3 4 4 3 3 2 1 1 1 4 2 2 2 2 2 2 1 3 4 6 6 8 12 13 11 11 19 16 14 14 12 10 10 16 11 10 13 14 15 14 14 16 15 14 14 14
5 3 3 4 4 5 5 4 3 2 4 4 5 4 3 2 4 3 1 3 2 4 2 4 5 5 6 10 11 11 15 19 14 18 24 23 20 16 15 14 14 15 20 17 16 15 18 19 16 15 15 13 13 11
3 2 6 4 3 2 5 3 3 3 3 3 5 4 8 7 4 2 2 3 4 3 6 7 3 2 7 12 14 17 17 17 21 20 14 9 3 11 10 16 22 21 20 21 20 20 19 15 14 13 12 11 12 10
4 3 4 5 4 4 3 2 2 1 3 4 3 3 3 2 1 1 1 1 4 6 1 1 3 10 13 16 17 15 16 13 9 6 8 7 7 11 17 26 28 27 24 22 16 14 12 10 11 12 11 11 10 10
3 2 4 3 4 3 2 3 2 1 2 2 2 1 0 1 2 4 5 5 3 5 2 3 8 10 10 12 15 19 18 12 5 3 4 7 11 26 29 29 29 27 24 19 17 16 13 11 10 8 7 8 7 4
1 2 4 4 3 2 2 3 3 3 3 2 3 1 1 3 5 2 2 6 6 3 3 9 9 11 12 10 9 10 9 9 10 17 20 22 24 25 26 26 23 21 19 17 15 13 13 11 8 8 7 5 3 3
3 4 3 4 2 1 1 2 1 1 1 1 2 1 1 2 2 2 4 7 4 1 2 8 11 11 18 17 13 12 11 16 21 23 22 23 24 24 25 18 17 18 16 12 10 8 7 7 6 5 4 3 4 4
3 2 3 4 3 2 1 1 3 1 1 1 1 1 1 1 4 2 3 8 8 5 6 11 13 17 18 12 12 10 11 17 19 17 17 17 18 20 12 10 14 16 12 10 9 7 7 6 5 4 4 3 3 3

GFSWCAN_925_spd_066.txt.gz
Wind_Speed
34 33 33 32 33 34 41 26 14 30 28 26 24 23 23 25 26 15 9 6 6 3 5 7 5 2 2 2 1 2 3 1 1 2 1 2 2 0 1 0 2 5 4 2 1 1 4 5 1 3 2 4 6 6
33 31 31 29 29 36 40 23 21 31 30 27 25 23 23 25 23 19 8 15 18 6 5 16 17 14 10 8 3 2 2 5 3 1 1 1 1 1 1 2 2 2 2 1 2 3 4 3 5 5 5 4 5 5
32 29 29 27 25 33 40 19 35 32 28 25 23 22 21 22 20 12 20 26 17 5 5 4 5 11 14 10 7 2 2 2 2 1 2 1 1 0 1 2 2 3 4 1 3 1 3 1 4 8 9 8 8 8
32 28 26 23 23 29 24 20 31 30 27 25 23 22 19 19 16 26 18 11 7 4 4 2 3 6 7 8 8 6 4 2 3 2 1 2 1 2 3 1 0 1 2 0 3 6 4 8 12 12 12 10 10 10
31 26 24 21 22 26 22 20 34 30 28 25 23 22 19 22 25 26 20 12 7 4 4 4 11 10 8 9 7 7 5 0 1 1 1 1 1 1 1 1 3 4 1 1 2 4 1 2 10 9 10 13 13 13
28 25 22 20 21 22 24 41 37 32 28 26 23 21 25 29 29 9 3 7 14 11 4 3 2 4 7 11 12 9 6 3 2 1 2 2 1 1 0 2 3 5 5 4 0 3 2 6 4 8 9 10 11 12
26 23 20 18 23 21 32 40 39 33 30 27 25 24 25 19 3 5 4 12 10 9 3 4 2 2 3 2 2 2 4 1 2 0 1 1 1 1 1 2 5 7 5 5 5 4 3 4 5 7 8 11 15 15
24 20 17 21 23 31 46 42 38 35 30 27 25 26 24 11 12 9 15 13 8 8 3 3 2 2 1 2 2 1 1 0 3 1 0 1 2 1 3 5 6 5 5 5 5 4 2 5 7 6 9 9 13 13
23 20 15 13 25 48 46 42 40 37 32 30 31 28 14 5 4 5 11 12 11 6 3 2 4 3 2 2 2 0 1 1 1 1 1 1 2 3 5 3 7 6 4 4 5 5 6 7 7 8 7 7 11 13
24 22 16 12 16 44 44 43 43 38 38 36 23 4 2 2 16 7 2 3 4 3 3 3 0 3 1 3 2 2 2 1 1 0 2 1 3 2 7 8 7 6 4 2 3 6 5 5 6 7 8 7 7 10
27 22 21 20 28 43 49 47 45 39 34 6 3 3 7 11 1 2 2 3 0 3 2 2 2 4 1 2 2 1 1 0 1 1 0 2 1 4 8 7 5 5 5 4 4 4 6 7 7 8 11 12 13 16
27 21 20 34 56 56 52 51 46 29 16 10 16 13 5 1 2 5 1 1 1 3 2 3 3 3 2 1 2 1 1 1 1 1 1 2 2 2 6 4 5 5 7 6 8 7 10 12 13 12 13 15 18 19
26 27 17 63 58 56 55 51 39 20 27 12 5 4 3 2 4 5 6 1 2 3 3 3 3 3 3 2 3 2 2 1 2 1 2 1 4 3 3 1 4 7 8 8 10 13 13 13 16 15 15 19 21 20
27 16 56 64 59 57 53 47 29 28 1 2 4 4 3 2 3 2 3 4 2 5 7 5 3 3 2 2 3 3 2 2 2 2 4 2 3 1 3 4 5 7 7 7 8 12 14 14 15 19 19 21 21 20
28 28 62 60 60 58 52 42 30 7 1 2 3 4 2 3 4 2 3 3 3 4 3 3 3 3 2 3 1 2 2 3 4 3 1 2 2 1 4 5 6 6 4 4 12 12 16 19 16 19 20 22 22 22
19 49 53 59 59 54 47 32 11 2 3 3 3 4 3 4 1 2 5 5 1 3 2 3 3 3 2 3 3 4 4 4 3 2 2 0 2 3 4 5 7 10 12 13 16 17 15 17 17 20 25 23 20 19
58 20 63 60 54 50 36 14 2 4 3 3 3 3 1 6 4 2 3 3 5 3 2 3 4 2 2 2 1 3 4 3 3 2 2 2 3 5 5 8 11 12 13 15 18 19 21 22 20 19 12 21 21 23
31 65 65 59 53 37 10 3 4 3 5 3 3 2 2 4 5 4 3 1 2 2 2 2 4 3 4 4 3 3 3 2 2 2 3 4 5 7 8 8 11 13 17 21 21 22 22 19 14 13 20 22 19 17
64 66 64 57 39 12 4 3 4 4 3 1 2 2 3 3 6 6 3 2 4 4 5 2 4 2 3 3 3 2 2 2 2 2 3 9 11 11 12 11 13 14 15 18 19 16 18 20 19 21 22 20 12 17
67 66 59 48 22 5 4 3 3 4 3 2 2 3 3 3 2 2 2 3 2 1 4 2 3 2 3 2 2 2 1 2 1 3 4 5 12 12 14 13 15 18 20 21 21 19 20 19 21 18 18 16 14 16
60 53 46 22 6 10 4 2 4 2 4 3 0 2 3 2 2 2 2 3 3 2 1 2 1 1 2 1 1 0 3 3 3 4 4 3 12 12 14 20 22 19 15 14 11 16 18 17 22 24 21 21 17 16
34 45 15 6 5 4 4 8 4 3 3 2 2 2 3 2 2 2 3 2 1 2 2 2 1 1 0 0 1 2 7 10 13 14 16 14 4 4 9 17 17 11 15 17 18 14 18 22 23 24 19 19 17 18
39 28 7 4 5 5 2 2 3 3 4 3 2 4 2 2 1 3 1 1 2 0 2 1 1 2 3 5 5 7 7 8 10 13 13 16 19 20 21 21 21 18 10 15 19 20 20 22 22 20 22 22 19 18
28 7 5 4 4 5 3 2 2 3 3 3 3 4 2 1 2 2 1 2 2 2 1 2 2 1 1 2 2 5 10 8 11 18 19 17 11 15 19 21 20 20 20 23 24 23 22 21 20 21 21 19 18 18
8 5 3 5 2 5 4 3 3 4 4 2 3 2 1 1 2 1 2 3 1 2 2 4 3 2 2 3 5 7 12 9 10 6 21 19 21 17 16 17 19 18 20 16 13 16 17 19 21 22 18 16 18 21
6 3 3 2 2 4 2 5 3 4 4 3 2 2 1 2 3 4 3 3 3 3 3 4 3 1 2 6 2 6 12 14 17 13 19 15 17 15 11 9 8 11 12 22 21 18 18 17 19 20 20 21 19 18
4 4 3 3 4 5 5 4 4 3 4 5 4 4 3 3 4 4 1 1 2 4 7 3 2 5 4 10 12 12 16 18 14 18 26 24 16 10 11 10 10 15 22 22 21 20 21 20 18 18 18 21 19 17
4 2 6 2 4 2 6 3 3 3 3 2 4 3 8 7 4 2 3 5 9 5 2 3 1 2 6 9 11 14 16 17 17 14 10 7 1 9 7 20 20 19 20 21 20 21 20 19 20 19 18 18 18 14
4 2 3 6 5 6 4 3 3 1 2 3 4 3 3 2 1 2 4 5 2 2 4 4 1 6 8 12 12 14 13 12 9 4 4 4 5 11 26 25 24 25 27 27 23 19 18 18 19 19 18 16 15 14
2 1 4 4 5 3 1 2 1 1 2 2 1 2 2 2 1 0 0 2 2 6 6 2 3 5 8 11 16 18 12 8 5 6 2 4 10 25 26 25 26 25 26 26 25 23 18 15 14 12 10 11 10 7
1 1 5 5 3 2 1 2 3 1 2 3 3 3 1 2 4 2 2 6 9 8 5 0 5 4 7 11 9 7 6 4 12 17 16 17 20 22 25 29 27 21 23 22 21 18 17 15 13 12 10 8 6 4
3 4 4 4 1 1 1 2 1 3 3 3 3 3 3 3 2 2 4 11 11 7 5 2 5 6 11 13 8 7 6 10 16 19 20 21 22 24 23 20 14 16 20 17 16 15 14 11 10 9 8 6 6 5
3 3 4 4 3 1 1 3 4 2 4 2 2 1 1 2 4 3 4 11 12 8 8 4 7 10 12 9 8 7 8 13 16 15 14 16 17 17 18 18 14 17 19 15 13 13 12 11 10 9 9 8 8 7

GFSWCAN_925_spd_069.txt.gz
Wind_Speed
35 35 35 34 31 30 30 36 39 26 24 23 21 19 15 20 25 10 4 3 5 3 6 7 5 4 3 2 4 2 3 3 2 1 2 1 2 2 2 4 6 5 4 3 2 1 3 5 3 1 3 4 6 5
34 34 32 32 28 26 27 34 35 5 24 21 20 15 14 23 21 13 6 19 20 7 3 17 19 15 7 2 4 2 3 2 2 3 1 2 1 2 3 3 1 2 4 4 4 4 5 2 10 5 6 5 3 3
33 33 31 28 25 23 27 30 32 24 21 19 18 15 17 20 18 8 17 17 17 4 4 5 4 12 12 9 5 4 1 2 2 2 2 2 2 2 2 2 3 1 1 3 4 1 2 12 7 5 4 3 1 2
33 32 29 26 22 18 24 27 15 24 21 17 17 16 17 17 14 15 15 9 10 4 4 2 2 4 7 6 9 7 6 4 4 2 2 2 2 1 2 2 2 4 3 3 2 1 6 5 5 4 5 4 2 4
32 30 26 24 19 16 21 22 5 27 23 19 18 15 13 16 15 18 14 8 7 6 4 3 3 11 9 8 12 13 9 4 2 3 3 1 0 2 2 2 2 3 5 4 4 3 2 1 3 4 2 2 4 5
30 27 23 20 16 14 21 18 27 31 24 20 19 16 15 17 23 17 3 3 13 10 4 3 1 4 9 12 14 13 8 4 3 3 1 1 1 2 1 2 2 3 3 3 4 3 3 3 3 2 4 5 4 5
27 24 20 18 16 14 12 22 29 27 23 22 18 18 17 23 7 2 3 8 11 6 3 4 2 2 3 3 4 4 7 3 3 1 2 1 1 3 1 2 1 5 6 6 5 3 3 2 2 6 6 8 10 11
23 21 20 18 18 16 13 27 32 29 26 23 21 22 14 10 9 5 12 12 7 7 3 4 2 3 3 2 2 2 2 2 4 1 2 1 2 2 2 4 4 5 7 7 5 3 2 4 5 5 7 8 7 7
22 20 20 20 22 20 17 41 36 32 28 26 25 21 3 2 2 4 9 10 8 3 4 3 4 3 1 2 2 3 2 2 1 1 0 2 0 2 4 2 5 4 4 1 3 4 4 4 7 7 6 7 8 9
20 21 19 19 25 28 49 43 40 33 32 26 27 4 0 1 8 7 0 3 4 3 3 3 1 3 2 2 1 2 2 2 1 2 1 1 2 4 4 6 5 5 4 3 4 6 5 5 6 8 8 8 7 9
23 23 19 13 26 52 49 47 40 37 35 14 3 1 4 6 0 3 2 3 1 3 2 2 3 5 1 3 2 1 2 1 2 1 3 2 2 2 2 5 4 5 5 5 4 4 6 6 6 7 9 13 16 17
28 27 20 16 35 49 49 45 45 26 17 13 13 10 4 2 3 5 1 2 3 4 2 4 3 3 1 1 3 1 2 1 2 1 2 2 2 3 2 1 2 3 5 5 7 7 12 11 13 10 11 13 16 20
31 30 27 30 35 34 48 47 40 21 25 15 4 4 3 3 4 5 5 2 2 4 4 3 3 3 2 2 3 2 3 2 2 2 2 2 4 3 2 3 5 6 7 8 10 13 15 13 15 13 14 18 20 18
32 33 31 33 30 44 49 46 32 21 5 3 4 3 4 2 4 3 3 4 3 5 8 5 3 3 2 2 3 4 2 3 2 1 4 3 5 4 4 3 3 5 6 7 10 14 14 14 16 18 19 21 20 18
32 27 20 43 60 57 49 42 30 9 3 2 3 5 3 2 2 1 1 3 2 5 4 4 3 3 2 3 1 2 2 1 4 4 2 3 4 4 3 3 5 6 4 5 14 12 17 20 17 18 22 23 22 22
30 28 24 59 61 56 43 36 15 1 3 3 4 3 2 4 2 2 4 7 0 4 2 3 4 4 1 4 3 4 5 5 3 3 3 3 3 3 4 4 5 8 10 12 16 18 20 19 18 20 24 23 20 19
32 9 55 62 56 48 42 18 3 3 3 4 2 2 3 3 3 3 3 2 3 2 3 3 4 3 2 3 1 3 4 3 3 3 2 4 4 4 5 6 7 8 10 13 15 19 20 23 23 21 11 21 22 25
9 60 66 61 51 43 16 2 4 3 5 3 3 2 2 3 4 3 3 2 2 2 2 3 4 3 4 4 3 3 3 2 2 2 2 3 4 9 11 10 12 11 13 17 18 20 23 22 15 16 21 23 21 23
46 66 65 55 39 15 4 3 3 4 2 1 1 2 3 2 3 3 3 3 2 3 5 2 5 3 3 3 3 2 2 2 2 2 3 7 12 15 17 16 16 15 17 20 20 16 19 22 21 23 22 22 17 22
66 67 58 43 29 6 5 2 3 4 3 2 2 3 2 2 1 3 3 3 2 2 4 3 3 3 3 2 3 3 2 2 2 2 4 5 13 13 15 15 17 20 22 23 22 20 18 18 19 20 23 21 18 18
63 57 43 22 6 10 4 3 3 2 3 3 2 1 2 2 3 3 3 4 3 1 1 2 2 2 4 6 5 4 3 4 3 4 3 4 15 19 20 24 24 22 15 14 11 14 17 15 21 22 22 21 23 25
36 43 17 8 5 4 4 5 4 4 3 3 2 2 3 2 2 2 3 3 0 2 2 2 2 2 3 3 2 1 1 3 5 5 8 10 4 5 10 16 17 12 14 16 16 15 18 20 22 21 21 23 22 23
39 33 7 5 5 4 2 1 3 2 5 3 1 4 2 2 1 2 2 2 3 2 1 2 2 3 4 2 1 4 4 6 7 8 12 16 19 20 21 21 20 17 12 15 17 18 18 22 21 19 19 20 20 20
31 6 4 3 4 4 4 2 2 3 3 2 3 4 1 1 2 3 1 2 2 0 1 1 3 3 2 1 2 2 6 7 10 16 13 12 11 13 15 18 18 17 17 17 15 14 16 17 19 19 18 19 21 19
6 3 3 3 1 5 5 3 3 4 4 2 5 3 1 2 2 1 2 3 1 1 2 3 3 1 2 1 2 2 5 7 9 6 20 16 14 14 14 15 14 13 9 18 18 18 19 19 18 18 18 18 18 19
6 3 2 3 2 5 4 5 4 5 5 4 4 2 1 2 3 4 3 3 3 3 3 4 3 2 1 2 1 3 8 12 17 12 16 11 19 12 8 7 5 10 17 22 20 19 20 19 19 20 18 18 17 18
4 1 1 2 3 5 5 4 3 4 6 4 4 4 3 3 4 3 2 3 2 4 10 8 4 5 4 2 2 5 10 12 10 14 20 15 9 7 7 7 10 18 21 22 22 20 20 19 19 18 18 19 19 16
3 2 6 3 4 2 7 3 5 4 4 3 5 3 8 8 5 3 3 5 16 14 9 8 9 7 4 4 7 10 11 12 12 9 7 7 7 10 6 17 15 16 18 20 21 21 20 19 20 21 20 20 20 15
3 1 2 5 5 6 6 4 3 1 2 3 4 3 4 2 2 3 6 13 11 9 13 12 6 4 3 6 5 11 7 6 8 5 4 4 6 10 21 21 23 22 20 23 22 19 17 16 16 16 14 12 12 11
3 2 5 5 6 4 2 1 2 1 1 2 2 2 2 2 3 7 11 10 9 10 12 9 5 4 5 9 13 12 6 3 4 6 2 4 9 21 22 25 23 19 18 22 22 21 18 15 15 12 11 10 10 8
1 2 6 5 4 2 1 2 3 3 3 3 3 3 2 1 1 3 5 8 13 15 12 8 4 1 3 6 7 7 6 3 7 12 13 15 17 19 21 18 16 15 18 18 16 16 17 16 15 14 13 11 10 9
4 4 4 5 2 2 3 3 2 3 3 3 3 2 3 3 1 2 8 14 13 11 8 6 1 1 4 7 5 4 4 6 11 12 14 16 18 18 19 13 15 13 18 15 13 13 13 13 13 13 12 12 11 10
3 3 4 5 3 1 1 3 4 2 3 2 3 1 0 2 4 3 5 11 10 7 11 6 2 3 5 4 3 2 4 8 9 9 9 11 12 14 13 9 11 12 16 14 14 14 13 12 12 12 12 11 11 11